GFSNE_sfc_temp_000.txt.gz
Temp
36 36 35 36 37 38 38 37 34 28 31 37 37 41 39 41 45 45 43 47 48 49 49 49 49 50 51 52 52 53 52 52 52 53 55 56 56 56
39 35 35 36 37 37 37 36 36 33 28 37 38 39 40 43 43 43 42 45 46 47 47 48 48 49 49 50 50 49 50 51 52 53 54 55 56 55
35 35 34 35 36 36 36 36 35 34 30 35 38 39 37 37 39 40 40 39 40 45 46 46 47 47 47 48 48 49 49 50 51 51 52 53 54 54
34 33 33 38 34 34 34 34 34 34 32 30 34 34 35 37 37 34 38 41 39 42 44 45 45 46 46 46 47 47 46 45 47 49 50 50 51 51
33 32 32 33 32 33 33 33 34 37 35 33 32 35 35 35 33 35 35 35 38 41 43 43 44 44 44 45 43 45 45 46 47 47 48 49 50 51
34 33 32 33 32 33 35 36 36 33 33 32 30 31 32 33 32 30 29 32 32 37 39 40 41 42 43 43 43 43 43 44 45 46 47 47 47 47
32 33 34 36 40 40 38 35 35 33 31 30 30 30 28 29 28 29 28 29 31 32 32 33 34 34 35 38 39 40 41 43 44 44 45 46 46 46
30 32 33 37 36 41 40 41 40 35 31 30 28 27 27 28 28 28 28 26 23 33 30 30 33 31 33 34 39 40 41 43 43 44 44 44 45 45
31 32 33 37 36 33 36 39 39 39 36 33 28 27 27 28 28 27 26 25 25 29 28 25 30 28 32 35 38 39 40 41 42 41 42 42 43 44
31 31 31 31 32 36 35 33 32 31 31 33 32 32 31 32 31 31 27 27 27 29 30 22 28 26 30 31 36 38 39 40 41 40 41 40 40 41
31 31 32 33 37 40 33 30 30 30 36 37 36 36 36 36 35 29 25 23 21 24 29 25 25 25 27 28 31 36 38 40 41 40 40 40 41 41
31 32 36 36 39 37 34 30 25 27 30 30 28 30 31 31 34 30 26 21 21 20 27 23 24 25 23 29 29 31 32 36 38 39 39 39 39 36
31 31 32 37 36 38 37 29 29 34 30 27 26 27 29 29 29 29 27 24 22 21 28 27 25 24 24 23 28 30 30 31 31 31 34 35 36 37
32 32 32 36 36 35 33 35 35 33 27 26 25 26 25 24 25 26 27 26 27 25 27 27 24 25 24 23 22 27 27 28 29 28 29 33 36 37
33 34 35 35 34 31 32 33 33 26 25 24 24 23 24 25 26 26 27 27 27 28 29 28 26 25 25 23 22 21 22 26 29 29 31 31 32 33
35 27 32 32 32 30 29 29 27 27 26 24 23 25 27 25 25 25 24 25 24 26 30 29 28 27 23 22 21 20 23 22 29 30 32 32 33 34
33 28 27 26 24 25 26 26 27 26 24 24 24 23 25 25 24 25 24 24 22 23 25 27 29 28 25 21 20 23 24 26 30 31 32 32 33 34
28 25 23 22 22 23 23 24 24 25 24 23 22 22 22 22 22 24 24 23 23 24 24 25 25 24 23 25 27 23 29 29 30 32 33 32 31 33
25 23 22 22 22 22 22 21 21 23 23 22 21 22 22 21 22 22 23 24 23 25 24 24 24 22 19 19 25 31 29 31 31 31 32 32 32 32
25 23 21 22 22 21 21 21 21 21 21 21 22 21 21 21 20 21 22 22 24 24 23 25 24 24 21 21 21 25 33 32 31 31 31 34 35 38
23 22 22 22 21 21 21 21 21 20 22 21 20 21 21 21 21 22 23 26 27 23 22 23 25 32 28 28 26 27 30 35 35 32 32 30 32 33
23 22 22 22 21 21 21 20 20 20 20 20 20 21 21 22 22 22 24 22 23 22 23 25 26 27 27 26 25 26 29 33 35 36 37 35 32 30
22 21 21 21 20 20 20 19 19 19 20 20 20 21 22 22 23 25 25 24 23 22 21 23 25 25 26 25 26 26 28 31 32 31 33 37 36 36

GFSNE_sfc_temp_003.txt.gz
Temp
34 34 33 34 34 34 34 33 30 25 27 33 33 38 37 38 42 43 42 46 48 48 49 49 49 49 50 51 51 52 53 51 52 53 52 53 54 55
37 33 33 33 33 33 33 33 33 29 25 34 35 37 37 41 42 42 41 45 45 46 47 47 47 47 48 49 49 49 49 50 50 51 52 52 54 54
34 33 33 33 32 33 33 33 32 31 27 32 36 37 36 36 38 39 40 38 39 44 45 45 45 46 47 47 47 47 48 48 50 51 52 51 52 52
33 32 32 37 31 31 31 31 31 32 30 28 33 34 35 36 36 33 36 39 37 41 42 43 44 45 45 45 46 46 47 46 46 45 46 48 49 51
32 31 31 31 29 30 31 31 32 36 33 30 30 34 34 34 34 33 33 34 37 40 41 41 42 43 44 44 45 45 44 45 45 45 46 47 49 50
33 32 31 31 30 31 33 33 35 32 32 30 30 30 32 33 31 29 29 32 31 35 37 38 40 41 41 42 42 42 42 43 44 45 45 46 46 48
31 31 33 35 40 39 37 35 34 32 31 29 29 29 28 29 27 29 28 29 29 30 30 32 32 33 34 37 38 39 40 41 42 43 43 44 45 45
29 31 31 35 35 40 40 40 39 34 31 29 26 27 27 27 28 27 27 25 22 32 29 29 31 30 31 33 37 39 40 41 41 42 43 43 44 43
31 30 31 36 35 32 35 38 36 36 37 33 28 27 26 28 28 26 25 25 25 29 28 25 29 27 31 33 37 38 39 40 41 41 41 42 43 44
30 29 29 30 31 35 34 32 30 30 31 33 31 31 31 32 31 31 28 26 27 29 30 21 27 25 29 30 35 37 38 39 40 41 42 42 42 41
30 30 30 32 36 39 34 29 29 29 34 36 36 36 36 36 34 29 24 22 21 25 29 25 25 25 27 28 31 36 38 39 40 40 40 41 41 42
30 30 36 35 39 38 33 30 24 26 28 29 28 29 31 31 34 30 26 21 21 20 27 23 24 26 23 29 28 31 31 36 37 38 38 38 39 36
31 32 31 36 38 37 36 29 29 33 29 26 26 27 28 29 29 29 27 24 22 21 28 27 24 23 23 23 28 30 30 29 28 30 34 35 35 36
31 31 30 36 36 35 33 34 35 33 26 25 25 26 25 24 25 26 27 26 27 25 27 26 24 24 23 22 22 28 29 28 28 26 27 31 34 36
32 34 34 34 33 31 32 33 32 25 25 23 24 22 23 25 25 26 27 27 27 28 28 27 26 26 25 23 22 23 24 26 27 26 28 30 31 31
34 25 31 31 31 30 28 28 26 27 26 23 23 24 26 24 24 25 23 24 23 25 29 30 28 27 24 25 24 22 24 23 27 28 30 33 34 33
32 27 26 25 23 24 24 25 25 25 23 23 22 22 23 23 23 24 23 23 22 23 24 28 28 28 27 25 22 25 26 27 30 31 32 32 33 34
28 24 22 22 21 22 22 22 23 23 22 21 21 20 20 21 21 23 23 22 22 23 24 26 25 24 26 27 29 24 28 30 32 33 33 32 32 34
24 22 21 21 21 21 21 20 19 21 22 21 20 20 21 20 21 20 21 22 22 24 25 25 24 22 21 22 27 33 28 32 32 32 32 32 31 32
23 22 20 21 20 20 20 20 20 20 20 20 21 20 19 20 20 20 21 21 23 24 23 25 25 24 23 22 23 27 32 32 32 32 32 33 34 36
22 21 21 21 20 20 20 20 19 19 21 20 19 19 20 20 20 21 21 26 27 23 22 23 26 33 28 29 26 28 32 35 34 32 32 32 31 32
22 21 21 20 20 19 19 19 19 19 19 19 19 20 20 21 20 21 22 23 23 22 22 25 27 27 25 23 24 27 29 32 35 36 36 34 31 28
21 20 20 19 19 19 19 19 19 19 19 19 19 20 21 20 22 23 24 25 23 23 21 23 25 25 25 24 26 25 26 28 30 31 32 36 36 36

GFSNE_sfc_temp_006.txt.gz
Temp
33 33 32 33 33 32 32 30 27 23 26 29 29 37 36 38 40 42 41 44 47 47 48 48 47 48 49 49 50 50 51 51 52 53 52 53 54 54
36 33 32 32 32 31 30 31 30 27 24 32 33 35 36 39 40 40 40 44 44 45 46 46 46 47 47 47 48 48 49 49 50 50 51 52 51 53
33 32 32 32 31 30 30 30 29 29 25 30 34 36 35 35 37 37 38 37 38 40 44 45 45 45 45 46 46 47 47 48 48 49 50 51 51 51
32 31 31 36 31 30 30 29 29 30 28 26 31 33 33 35 35 34 36 39 36 40 42 43 43 43 44 44 43 44 44 46 46 47 47 47 48 49
31 30 30 29 28 29 29 29 30 33 32 30 29 33 33 34 33 33 33 33 36 39 41 41 41 42 42 42 43 43 43 43 43 44 44 45 46 48
31 30 30 29 29 29 30 31 34 31 31 30 29 30 30 31 31 29 28 31 31 35 37 38 39 40 40 41 41 41 41 41 42 43 43 44 45 46
29 30 31 33 38 38 36 33 32 31 30 29 29 28 28 28 26 28 27 29 30 32 31 31 32 32 33 36 37 38 38 39 41 41 42 42 43 44
27 29 29 34 33 39 39 39 38 32 28 27 26 26 26 27 28 27 26 25 22 32 29 28 31 30 31 32 36 37 39 40 40 41 41 42 43 43
30 30 31 35 34 31 34 38 34 37 37 31 26 26 26 28 27 26 25 25 25 29 29 25 29 27 31 33 36 37 38 39 39 39 40 41 42 43
30 29 28 29 30 34 34 31 29 29 31 32 30 30 31 32 31 30 27 26 28 29 30 21 27 26 29 31 35 36 37 38 39 39 40 41 41 41
30 29 29 30 36 39 34 29 29 29 34 36 36 36 35 35 34 30 24 22 21 25 29 25 25 25 27 28 31 36 38 39 39 39 40 40 40 41
30 30 36 36 38 37 33 30 24 26 28 29 28 28 30 29 34 30 26 21 21 20 27 23 24 25 22 29 28 30 30 35 37 38 39 39 40 37
31 31 31 36 37 37 36 28 28 32 30 26 25 26 27 28 27 27 26 24 21 21 28 27 23 23 22 22 28 30 31 30 30 31 35 35 36 35
31 30 31 36 36 35 32 33 34 33 26 25 24 25 23 22 24 25 25 26 27 25 27 26 23 23 22 22 22 29 31 31 29 28 29 31 34 35
32 34 34 34 33 30 31 32 31 24 25 23 23 21 22 23 23 24 25 26 27 27 28 27 25 25 25 23 23 24 26 28 29 27 28 28 28 30
34 25 31 31 30 29 27 27 26 26 25 23 22 23 24 22 22 24 22 23 22 24 28 28 29 27 24 25 25 24 27 24 28 30 30 32 33 34
32 27 25 24 22 23 24 24 25 25 22 22 21 21 22 22 21 24 22 22 20 21 23 27 29 29 28 26 24 27 27 28 32 32 33 32 34 34
27 23 21 21 20 21 21 21 22 22 21 21 20 20 19 20 21 22 22 21 20 22 23 26 25 25 28 28 32 26 30 30 32 33 33 31 32 34
23 21 20 20 20 20 20 20 19 20 21 20 19 19 20 19 20 19 20 20 20 23 25 25 24 24 22 21 29 35 29 31 32 32 32 32 31 32
22 21 19 20 20 19 19 19 19 19 19 19 20 20 18 18 18 18 19 19 21 24 23 25 24 24 25 23 24 28 34 31 31 31 31 32 33 37
21 20 20 20 19 20 19 19 19 19 20 20 18 19 19 19 18 19 20 25 26 23 21 22 25 33 28 26 24 28 31 34 33 31 32 31 31 32
21 20 19 19 19 19 19 19 18 19 19 18 19 19 19 20 19 19 21 21 22 23 22 24 26 25 15 20 24 24 28 31 35 35 36 34 30 27
19 19 19 19 18 18 18 18 18 18 18 18 18 19 20 19 21 22 23 23 25 23 22 22 24 21 17 17 25 24 27 29 30 30 32 36 36 36

GFSNE_sfc_temp_009.txt.gz
Temp
44 43 42 43 43 42 41 40 36 31 34 40 40 45 44 44 45 46 45 45 46 47 47 48 48 48 47 49 50 50 50 50 51 51 52 53 54 56
44 42 42 42 42 42 41 40 39 35 31 39 40 42 43 43 44 44 44 44 44 45 45 46 46 46 47 47 48 48 48 48 48 49 50 51 52 53
42 40 40 41 40 40 40 39 38 37 33 37 40 42 41 41 42 44 43 42 43 43 44 44 45 45 45 45 45 45 46 47 47 48 48 49 50 50
39 38 38 40 38 39 38 37 37 38 35 32 36 38 39 41 41 40 41 42 42 42 42 43 43 43 44 44 43 43 43 44 44 46 46 47 48 49
38 37 37 37 36 37 37 36 37 37 37 34 34 39 39 39 37 39 39 39 41 40 41 41 41 42 42 42 43 43 43 43 43 44 43 44 45 46
38 37 37 36 36 36 37 37 37 37 36 35 34 33 35 37 37 35 34 37 37 39 39 40 40 41 41 41 41 41 41 41 42 42 43 43 43 44
37 37 38 38 38 39 39 38 37 36 34 31 32 32 33 33 32 34 32 34 35 36 37 37 38 38 38 39 38 39 39 39 40 41 41 42 42 43
36 37 37 36 37 38 39 39 39 33 31 31 31 31 31 32 34 31 30 28 26 37 34 33 37 36 37 38 38 38 39 40 40 41 41 41 42 43
37 37 36 38 37 36 37 38 36 38 37 35 31 31 31 32 30 28 29 29 29 34 32 28 35 33 37 38 37 37 38 39 39 39 39 40 41 42
37 36 35 35 36 36 37 33 34 35 36 36 34 34 33 35 34 33 31 30 32 34 34 25 33 32 35 36 37 37 38 38 39 40 40 41 41 41
37 37 36 36 37 39 35 32 34 34 36 36 36 36 36 36 35 32 28 25 25 29 33 30 30 30 32 33 37 37 38 38 39 39 40 40 41 41
37 37 37 37 38 38 35 34 29 31 31 32 33 33 33 33 34 33 29 23 23 22 32 26 28 29 25 34 36 36 36 37 37 38 39 39 39 37
35 35 36 37 37 37 36 33 31 34 33 30 30 30 32 32 32 31 29 25 23 23 31 29 26 27 26 26 32 35 36 35 35 36 37 37 36 36
33 35 35 36 36 35 33 33 34 33 29 28 28 28 28 27 28 28 28 28 28 26 28 27 25 25 25 25 26 34 34 35 35 34 34 36 37 38
36 36 35 34 33 31 31 32 31 28 27 25 26 25 26 27 26 27 28 28 28 29 30 29 28 27 27 26 26 29 29 33 34 32 33 33 33 34
35 33 32 31 30 30 29 29 29 28 27 25 25 26 28 26 26 27 25 26 25 27 31 31 31 29 28 29 28 28 30 28 33 33 33 34 35 35
33 30 28 27 26 26 27 27 27 27 25 25 24 24 25 25 25 27 25 25 23 24 26 30 32 32 32 29 28 31 33 32 33 32 33 33 36 35
29 25 24 24 23 24 23 24 25 25 24 23 23 22 22 22 23 25 25 24 23 24 25 29 29 28 31 34 38 32 32 33 33 33 33 32 33 35
25 24 23 22 22 22 22 22 22 23 23 22 21 21 22 23 22 22 23 23 23 25 27 29 27 27 24 25 34 37 31 32 32 33 33 32 32 33
24 22 21 22 22 21 22 22 22 22 22 22 22 22 21 21 21 21 22 22 23 26 26 28 28 27 26 26 27 32 35 31 31 31 31 33 35 38
22 22 22 22 21 21 21 21 21 21 22 22 21 21 21 21 21 22 22 25 27 26 25 26 29 33 30 30 29 31 34 37 35 31 32 31 31 33
22 21 21 21 21 20 20 21 20 21 21 21 21 21 22 22 21 22 23 24 25 26 26 29 30 30 29 28 27 29 31 34 37 38 36 34 31 28
21 21 21 20 20 20 20 20 20 20 21 21 21 22 22 22 24 24 25 26 27 28 28 27 29 30 29 28 28 28 29 32 34 33 34 36 36 35

GFSNE_sfc_temp_012.txt.gz
Temp
51 50 49 49 49 49 48 46 42 36 39 46 47 51 50 50 48 49 48 47 47 47 47 47 47 47 48 48 49 49 50 50 50 51 51 52 52 53
50 49 48 49 48 48 46 46 45 41 37 45 46 47 48 48 48 48 48 46 46 47 46 46 46 47 47 47 47 48 48 48 48 49 49 49 50 51
48 46 45 46 45 46 45 45 43 42 38 42 45 46 45 45 46 48 47 46 46 46 46 45 45 45 45 45 45 46 46 46 47 47 48 48 49 50
46 44 43 45 43 44 44 42 42 43 39 36 41 42 43 45 44 43 45 47 46 45 44 44 44 44 44 44 44 44 44 45 45 45 46 46 47 48
45 44 43 43 42 43 42 41 42 42 41 39 39 42 43 42 42 43 42 43 44 43 44 44 44 43 43 44 44 44 44 44 43 44 44 45 45 46
45 44 43 42 41 41 41 41 42 40 40 39 38 37 38 41 41 39 38 40 40 42 43 42 43 43 43 43 43 42 42 42 42 43 43 43 43 44
45 44 43 42 40 40 40 40 39 37 37 34 33 36 36 38 36 38 36 37 38 39 40 41 42 42 42 42 41 41 41 41 41 41 41 42 42 43
42 43 43 41 41 41 41 40 39 34 32 33 33 34 35 37 37 35 33 31 29 40 37 36 40 39 41 42 41 41 41 41 41 41 41 41 42 42
41 41 41 42 41 40 39 40 39 39 39 37 34 35 34 36 33 31 32 31 31 36 36 32 39 37 41 42 40 40 40 40 40 40 40 40 41 41
41 41 41 40 40 38 38 35 36 38 40 39 37 37 36 36 36 35 33 32 34 37 37 29 37 35 40 40 40 40 40 40 40 40 41 41 41 41
42 42 41 39 39 39 36 33 36 38 40 39 38 38 38 38 37 34 29 28 27 31 36 33 34 33 35 37 40 42 41 40 39 38 38 39 40 41
41 41 40 39 39 38 36 36 33 34 34 34 37 37 37 37 37 36 32 26 26 25 35 29 30 31 27 37 40 39 40 40 41 40 40 39 39 37
38 38 39 39 38 38 37 35 33 35 34 35 34 35 36 37 37 35 33 28 25 25 33 30 27 28 27 28 34 38 38 39 40 39 40 40 40 38
35 38 39 38 36 36 35 34 35 34 34 32 31 32 32 31 32 32 31 30 30 28 30 29 26 27 26 26 27 36 38 38 37 36 36 38 39 40
38 38 37 36 35 34 34 33 33 33 31 29 28 29 30 31 30 31 31 32 31 32 32 31 29 29 28 26 27 31 32 35 36 34 35 34 34 35
37 36 36 34 34 33 33 34 33 33 30 28 28 29 31 31 30 31 29 29 28 29 33 33 32 30 28 30 30 28 32 30 36 36 35 35 36 36
35 34 33 32 31 31 31 32 32 32 28 28 27 27 27 29 28 30 29 28 26 26 28 32 33 33 33 31 28 32 34 35 35 34 33 33 36 36
31 30 29 29 28 28 28 28 29 28 28 26 26 26 25 25 26 28 28 27 26 26 27 30 31 31 32 35 39 34 34 33 34 34 33 32 33 36
29 28 27 27 27 26 26 26 25 27 26 26 25 25 25 26 25 25 26 27 26 28 28 31 30 29 26 25 34 39 32 32 33 34 34 33 31 34
28 27 26 26 26 25 25 25 26 26 26 25 25 25 24 24 24 24 25 25 26 28 28 30 30 30 27 26 26 31 35 33 32 32 32 34 36 39
27 26 27 26 25 25 25 25 24 24 25 24 24 24 25 24 24 25 25 27 28 27 26 27 31 36 32 32 29 32 35 38 37 32 32 31 31 33
26 26 26 26 25 24 24 24 24 24 24 24 24 25 25 25 24 25 27 26 28 28 28 31 33 33 31 29 28 29 33 36 38 37 37 34 31 28
26 26 25 25 24 24 23 24 23 23 24 24 24 24 25 24 26 28 28 29 29 29 30 30 31 33 31 32 31 31 30 32 33 32 35 37 36 36

GFSNE_sfc_temp_015.txt.gz
Temp
51 51 50 50 50 49 48 46 41 35 37 44 45 51 50 50 49 48 47 49 50 50 49 49 49 49 49 50 50 50 50 50 50 51 52 52 53 53
51 49 49 49 48 47 46 45 44 40 35 43 44 46 48 49 48 47 47 48 48 49 48 48 48 48 48 48 48 48 48 48 48 50 50 50 51 51
50 48 46 47 45 45 45 44 42 41 36 40 43 45 44 43 45 46 45 45 45 47 47 47 47 47 47 47 47 47 47 48 48 48 49 49 49 50
48 46 44 47 44 44 43 42 41 42 38 35 40 40 41 43 43 41 43 46 43 46 47 46 46 46 46 46 46 46 46 46 47 46 47 47 47 48
47 46 44 44 42 42 42 41 41 42 40 38 36 40 40 42 39 41 41 42 44 45 45 45 45 45 45 45 46 46 46 46 45 45 45 45 46 47
47 46 45 43 41 41 39 39 40 38 38 36 35 34 36 38 39 37 36 38 37 42 42 43 44 44 44 45 44 44 44 44 44 44 44 43 44 45
46 46 45 44 43 42 40 38 38 36 34 32 32 33 33 34 33 36 34 34 35 36 36 37 38 38 39 42 42 42 43 43 44 44 43 43 43 43
43 43 44 42 43 43 43 42 40 35 32 32 31 31 32 34 35 32 30 29 26 37 34 33 36 35 37 38 42 43 43 43 43 43 43 43 43 43
41 40 41 43 41 41 41 41 39 40 40 36 33 33 32 33 31 29 30 29 28 33 32 29 34 33 37 39 41 42 42 42 43 43 43 43 43 43
41 42 41 40 40 40 38 35 36 36 38 39 37 35 35 35 33 33 32 30 31 33 35 26 32 31 35 37 40 41 42 42 43 43 43 42 41 41
42 42 41 40 41 41 37 32 34 36 40 40 40 39 40 40 39 34 28 27 26 29 33 29 30 30 31 32 35 42 43 43 42 43 43 43 43 42
40 40 42 40 41 41 36 34 31 32 33 33 35 36 37 37 39 36 32 26 25 24 31 27 27 28 24 32 34 34 35 39 41 42 43 43 43 39
36 37 38 40 40 39 38 34 32 35 34 32 33 33 34 34 35 33 32 29 25 24 30 29 25 25 25 24 30 32 33 34 35 37 40 41 42 41
35 36 37 39 39 38 36 36 36 36 32 31 30 29 29 28 29 30 30 30 30 27 30 29 25 25 24 23 24 30 32 33 33 33 34 38 41 41
37 38 38 37 37 35 35 36 36 32 31 29 28 27 28 29 28 29 30 31 31 31 31 30 28 27 27 25 24 26 29 32 33 32 35 34 34 34
36 35 35 36 36 35 34 34 33 32 31 28 27 28 29 27 26 28 27 27 26 27 30 31 31 30 27 27 28 27 30 27 31 33 35 35 36 36
35 32 32 32 30 30 31 31 31 31 28 28 26 26 26 26 26 27 27 26 24 25 26 29 31 31 31 29 27 29 30 31 33 34 33 32 34 36
31 29 29 28 27 28 27 27 27 27 27 26 25 25 24 24 24 26 26 25 24 25 26 28 28 28 29 31 37 31 31 31 32 33 33 30 31 35
29 27 26 26 26 26 26 25 24 26 26 25 24 24 24 24 25 23 24 24 24 25 26 28 28 26 24 23 31 38 29 30 30 31 33 32 31 33
28 27 25 26 26 25 25 24 24 24 24 24 24 24 24 23 23 23 23 23 23 25 26 27 28 27 25 25 26 30 36 31 30 30 30 33 34 39
27 26 26 26 25 25 24 24 23 23 24 24 23 23 24 24 23 24 24 28 28 26 24 26 29 36 32 32 28 30 33 37 36 31 31 30 30 31
27 25 25 25 24 24 23 23 22 23 23 23 23 23 24 24 24 24 25 25 25 26 27 30 32 32 30 29 27 28 30 33 37 37 37 34 31 28
25 25 24 24 23 23 23 22 22 22 22 22 23 23 24 23 25 25 26 27 28 29 29 28 30 32 31 30 30 29 29 30 31 31 33 38 37 37

GFSNE_sfc_temp_018.txt.gz
Temp
42 41 41 41 41 40 39 37 32 30 32 33 35 42 40 41 43 45 43 47 49 50 50 50 50 50 50 50 51 51 51 50 50 51 50 52 51 53
43 41 40 40 39 38 37 36 35 31 30 35 37 36 39 44 45 44 42 47 47 48 48 48 48 48 49 49 49 49 49 49 49 50 50 50 51 51
42 41 40 39 37 36 36 35 34 33 31 35 37 38 36 36 40 40 42 40 41 46 47 47 48 48 48 48 48 48 48 48 48 49 49 50 49 50
41 39 38 43 36 36 34 33 33 33 32 31 35 35 34 36 38 36 40 43 41 45 46 47 46 46 46 46 47 47 47 47 47 47 47 49 49 49
40 38 38 37 34 33 33 32 32 37 32 31 31 34 35 35 35 35 36 38 40 44 44 44 45 45 45 46 46 46 46 46 46 46 46 46 47 47
40 39 38 37 35 33 34 32 35 31 32 31 30 30 31 34 33 31 32 33 34 39 40 41 42 43 43 44 44 43 43 44 45 45 46 46 45 46
38 39 39 40 44 42 39 32 32 31 29 27 30 31 30 30 29 31 30 31 32 33 32 34 34 35 36 39 40 41 42 44 45 45 45 46 45 46
34 36 37 40 39 43 43 43 41 33 30 29 30 28 29 29 27 29 28 26 25 34 28 30 33 32 33 35 40 42 42 43 44 44 44 45 45 45
33 34 35 41 38 35 38 41 39 40 40 35 30 30 29 30 27 27 28 28 27 31 30 27 32 30 33 36 39 40 42 42 42 43 44 44 45 45
33 34 33 33 34 37 34 29 30 31 32 35 34 33 32 34 34 32 31 29 30 31 31 24 31 29 32 33 38 39 40 41 43 44 44 44 44 44
34 34 35 33 40 42 35 26 30 31 37 39 39 39 39 39 39 34 28 25 25 28 31 28 28 27 29 30 32 38 40 41 40 41 42 43 43 44
31 33 39 38 40 41 35 32 28 29 29 30 31 32 34 32 37 32 28 23 23 23 29 25 26 26 23 30 29 32 31 36 38 39 40 41 42 39
30 30 31 39 40 40 40 31 30 34 34 30 29 29 30 30 30 30 29 26 24 23 30 29 25 25 24 23 28 30 31 31 32 33 37 39 40 40
30 30 30 38 38 38 36 37 37 37 29 28 28 27 26 26 27 27 28 27 28 27 29 29 26 25 24 23 23 29 31 31 30 30 31 36 38 40
32 35 37 37 36 34 36 37 36 27 28 26 25 24 25 26 26 26 26 27 27 29 30 29 27 26 26 24 24 26 28 30 31 30 31 32 32 34
34 28 34 34 35 34 31 30 27 28 28 26 25 26 27 26 25 25 24 25 24 25 29 29 28 28 26 26 26 26 28 26 31 32 33 33 35 36
34 27 26 25 25 26 26 26 27 27 25 25 24 25 25 25 25 26 25 24 23 22 24 27 29 28 28 27 25 27 28 29 31 31 31 30 32 33
29 24 22 22 23 24 24 24 25 25 24 24 23 23 23 22 22 24 25 23 21 23 23 25 25 25 27 28 34 28 29 29 30 31 31 29 29 33
24 21 20 21 22 22 22 22 21 23 24 23 22 22 22 22 24 22 22 23 22 23 23 24 25 25 22 22 30 38 29 29 29 29 30 31 29 32
25 23 19 21 22 21 21 21 22 23 22 22 22 23 22 22 21 22 22 22 22 24 25 26 26 26 25 25 26 30 36 31 30 29 30 32 34 38
24 21 21 21 21 21 21 22 22 21 23 22 21 22 22 22 22 23 23 27 27 25 24 25 29 35 32 31 27 29 33 37 36 31 31 30 30 31
24 20 21 20 20 21 21 21 21 21 21 21 21 22 22 22 22 23 24 23 24 26 26 28 31 31 29 27 26 27 30 33 36 37 37 35 30 28
19 20 20 20 21 20 20 20 20 20 21 21 21 21 22 22 23 24 24 25 26 27 29 28 30 31 29 29 29 28 28 29 31 31 33 38 38 38

GFSNE_sfc_temp_021.txt.gz
Temp
41 40 39 39 39 37 37 35 31 26 29 30 32 37 37 38 40 43 41 46 48 49 49 49 49 49 50 50 51 51 50 50 51 51 51 51 52 53
41 40 39 38 37 36 35 35 33 29 27 31 33 33 36 41 42 41 39 45 45 46 47 48 48 48 49 49 49 50 49 50 49 50 50 51 51 51
40 39 39 38 36 35 34 33 32 30 27 31 32 34 32 33 36 37 39 38 39 45 46 46 47 47 47 47 48 48 48 49 49 49 49 50 50 50
40 38 38 42 35 34 33 32 30 30 28 28 31 32 32 32 35 34 37 41 39 42 44 45 45 45 45 46 46 47 47 47 47 47 48 49 49 49
39 37 37 35 33 32 31 30 30 35 30 29 29 33 32 33 32 33 34 35 38 42 43 43 44 43 44 45 45 45 45 45 45 46 46 46 47 48
38 37 36 35 33 32 32 31 33 29 28 28 28 28 30 33 32 30 30 32 32 37 39 40 41 42 42 43 43 42 42 42 43 44 45 45 45 46
37 37 37 38 43 41 38 32 30 28 27 25 26 28 29 29 28 30 28 30 31 32 32 32 32 34 34 38 38 39 40 42 43 44 44 45 45 45
32 33 34 39 39 43 43 43 41 31 24 28 27 28 28 28 26 29 28 26 25 33 27 30 32 31 32 33 38 40 41 41 42 43 43 44 44 45
32 32 34 39 37 33 37 41 40 41 40 34 28 27 27 30 28 26 27 27 28 31 30 27 31 29 33 35 38 39 40 41 41 42 43 44 45 45
31 31 30 30 32 35 32 30 31 30 30 33 30 30 30 33 33 32 30 29 29 31 31 24 30 29 32 32 37 38 39 40 41 42 43 42 42 44
32 32 32 31 38 41 34 26 28 29 36 38 39 39 39 39 37 32 25 23 23 26 30 26 27 26 28 29 31 37 39 40 40 40 40 41 42 42
30 31 36 36 40 40 34 29 26 27 29 29 29 31 33 30 36 30 26 22 22 21 28 24 25 26 23 29 29 31 30 35 37 38 39 40 40 38
29 30 31 38 39 39 39 31 30 34 33 27 28 29 29 29 29 29 28 24 23 22 28 28 24 24 24 23 28 30 30 31 31 32 36 37 38 38
29 29 29 37 38 37 35 37 37 35 28 27 27 26 26 25 25 26 27 26 26 24 27 26 24 24 23 22 22 28 29 30 30 29 29 34 37 39
30 34 37 36 35 32 34 35 34 26 26 24 24 23 24 25 25 25 25 26 25 27 28 27 25 25 24 22 22 24 26 28 30 28 28 30 31 32
33 28 33 33 32 32 29 29 27 27 26 24 24 25 26 24 24 25 23 24 23 24 28 28 26 25 24 24 24 24 27 24 28 29 30 32 33 34
33 27 24 24 23 25 25 25 26 26 24 23 23 23 24 24 23 24 23 23 22 22 23 26 28 27 26 25 23 25 26 26 28 28 29 29 31 32
27 23 21 21 21 23 23 23 23 23 22 22 22 21 21 21 21 23 24 22 20 22 23 24 24 24 25 27 31 25 27 27 29 29 30 28 28 32
24 20 18 19 20 21 20 19 19 21 21 21 20 20 20 21 23 21 22 22 21 22 23 24 24 24 22 20 30 38 29 29 30 30 30 30 28 31
23 21 18 19 20 19 19 19 20 21 21 21 21 21 21 20 20 21 21 21 21 23 24 26 26 26 24 24 26 30 35 30 29 29 29 32 33 37
22 19 19 19 19 19 19 18 19 20 22 21 19 20 20 21 20 21 22 26 26 24 22 24 28 35 32 31 27 28 32 36 35 31 30 29 29 31
22 19 20 19 18 17 17 19 19 19 19 19 19 20 21 21 20 21 22 22 23 24 25 27 31 31 29 27 25 26 29 32 35 37 37 35 30 27
18 19 19 18 17 17 18 19 19 19 19 19 20 20 21 20 22 23 23 24 25 25 28 27 29 30 28 27 28 27 27 28 30 30 32 38 38 38

GFSNE_sfc_temp_027.txt.gz
Temp
42 42 38 37 37 36 36 34 32 28 27 30 31 33 33 34 37 38 35 42 45 46 46 47 47 48 49 49 50 51 52 51 52 52 53 53 52 54
42 41 39 36 35 35 34 33 32 30 26 29 30 30 33 37 37 38 35 42 42 44 45 45 46 47 47 48 49 49 50 50 50 51 51 52 52 53
41 39 40 37 35 34 33 33 31 29 26 28 29 30 29 30 33 33 34 33 34 41 43 44 45 46 46 47 47 48 48 49 48 49 50 51 51 52
40 39 39 40 34 35 34 31 30 29 27 25 26 28 28 29 30 29 34 37 35 39 42 43 44 44 45 45 46 46 46 46 47 48 48 49 50 50
40 39 38 36 34 33 31 30 29 33 28 26 27 27 27 28 28 29 29 30 35 39 41 41 42 43 43 44 45 45 45 45 45 45 45 46 47 48
39 38 38 37 34 33 31 30 30 28 27 26 26 24 25 28 27 26 28 30 30 35 37 39 40 41 42 42 42 42 42 42 43 44 44 45 45 46
38 38 37 37 40 38 34 30 29 28 27 23 25 22 24 27 27 28 26 28 29 30 30 30 29 31 32 37 38 39 39 40 42 43 44 45 45 45
35 34 33 36 36 41 41 42 39 27 21 20 18 24 25 26 27 27 26 24 24 30 26 29 31 30 32 32 37 39 40 42 42 43 43 43 44 44
34 33 33 36 33 31 36 39 38 40 40 32 27 26 26 28 27 26 26 25 27 30 28 25 30 28 31 33 38 39 40 41 41 42 42 43 44 44
32 29 28 29 30 33 32 29 30 30 31 31 28 29 29 31 30 29 29 27 28 29 28 21 29 27 30 31 36 38 39 40 41 41 42 43 43 43
31 29 30 29 35 39 32 26 28 29 35 38 39 39 39 39 37 31 24 22 21 25 28 25 25 25 28 29 31 36 38 40 40 41 41 41 41 42
29 30 35 34 38 39 31 28 25 26 28 27 28 29 32 29 35 29 22 19 21 21 26 21 25 25 21 26 27 28 31 35 37 38 39 39 40 37
29 29 30 36 38 39 38 27 28 32 29 25 26 26 27 27 27 27 27 20 21 21 28 28 22 23 23 21 26 28 29 29 29 31 35 36 37 37
29 29 28 36 37 36 33 34 36 34 26 25 24 24 24 23 23 24 25 24 25 24 26 25 22 20 20 20 20 27 28 28 28 27 28 31 35 37
30 33 36 35 34 30 32 34 33 24 24 22 22 22 22 22 22 22 23 24 24 25 27 26 24 24 23 21 21 22 24 26 27 26 26 26 26 27
32 26 31 31 31 30 27 27 25 25 24 23 22 23 24 22 22 23 21 22 21 22 26 27 25 24 23 23 23 22 24 22 26 27 27 27 28 28
28 25 23 22 21 22 23 23 23 23 21 21 20 21 22 22 21 22 21 21 20 20 21 24 26 26 26 24 22 24 25 25 26 26 25 25 27 28
25 21 19 18 19 20 20 20 21 21 19 19 19 19 19 18 19 21 22 19 18 20 20 22 23 23 25 28 31 24 25 25 27 28 28 25 27 31
21 18 16 17 18 18 18 16 16 18 17 17 17 17 18 19 21 18 19 19 19 20 21 22 23 23 20 19 29 37 28 29 29 29 30 30 28 30
21 19 15 17 17 17 16 16 17 17 17 17 17 19 19 17 18 18 19 19 19 21 23 25 24 24 23 23 24 29 35 29 29 27 28 30 31 36
19 17 17 17 16 16 16 15 15 15 18 19 17 17 19 19 19 19 20 25 26 23 22 24 26 34 30 29 25 27 31 36 35 30 29 27 27 28
19 17 17 17 16 16 15 15 15 16 16 16 17 19 21 21 21 22 22 21 22 23 24 26 29 30 28 26 24 25 27 30 34 36 36 33 28 25
16 17 17 17 16 15 16 15 16 16 16 16 19 20 21 21 24 24 23 24 24 24 28 28 30 30 29 28 27 26 25 27 29 28 31 37 37 36

GFSNE_sfc_temp_030.txt.gz
Temp
43 43 42 41 39 40 39 36 34 29 28 33 32 33 33 34 36 37 34 41 45 45 46 46 47 47 48 49 50 51 51 52 52 53 54 54 53 54
42 42 41 39 39 39 37 35 34 31 28 30 31 31 32 37 36 36 34 42 42 43 44 45 45 46 47 48 49 49 50 50 51 51 52 52 53 53
42 41 40 40 38 35 35 33 32 31 27 29 29 30 29 30 32 32 33 31 32 41 43 44 44 45 46 47 47 48 48 49 49 50 50 51 51 51
39 38 38 42 38 37 35 32 31 29 28 25 26 27 28 29 29 28 33 36 33 38 41 43 44 44 44 45 45 46 47 47 47 48 48 49 49 50
39 38 39 39 36 35 35 32 30 33 27 26 26 27 27 27 27 27 27 28 33 38 40 41 41 42 43 44 45 45 45 45 45 46 46 47 48 48
37 36 37 37 36 36 35 32 31 29 27 26 26 24 25 27 26 26 26 28 29 34 36 37 40 41 42 42 42 42 42 42 43 44 45 45 45 46
36 36 36 38 39 38 36 32 30 28 27 22 24 23 23 25 26 28 26 27 28 29 29 29 29 30 32 36 37 39 39 40 42 43 44 45 45 45
31 31 33 36 37 40 41 42 37 27 22 20 18 24 25 25 24 25 25 24 24 29 25 29 31 30 32 32 37 39 41 42 42 43 44 44 44 44
31 33 35 36 33 31 35 39 38 40 40 30 26 25 25 26 25 23 25 26 25 29 28 25 29 28 31 33 37 39 40 41 41 42 42 43 44 44
32 31 30 31 32 32 31 29 30 30 31 32 29 29 28 29 29 29 28 26 27 29 28 21 29 27 30 30 36 38 39 40 41 42 42 43 43 43
32 31 31 30 35 38 32 26 28 29 35 38 38 38 38 38 37 30 23 21 21 24 28 24 25 25 28 29 31 36 39 40 40 41 41 41 41 42
29 31 35 34 38 39 32 29 25 25 27 26 27 28 30 28 34 28 19 17 20 19 25 21 24 24 20 26 28 27 30 35 36 37 38 39 39 37
29 29 30 36 38 38 38 27 28 31 28 24 25 25 26 26 26 26 26 17 21 20 27 27 19 23 22 21 26 28 29 29 29 30 34 36 36 36
29 29 28 35 36 36 33 34 35 32 25 24 23 23 23 22 22 23 25 24 24 23 25 24 21 19 20 19 20 27 28 28 28 27 27 31 34 36
30 33 35 34 33 29 31 33 31 22 23 21 21 21 20 21 21 22 22 23 22 23 26 24 23 23 22 20 20 22 24 27 27 26 26 26 26 27
32 25 31 30 29 28 26 26 24 23 23 22 21 22 23 18 21 22 20 21 20 21 24 24 22 22 21 22 22 21 24 22 26 26 26 27 28 28
27 24 22 21 19 21 22 22 22 22 20 20 19 19 21 21 20 21 20 20 19 20 20 24 24 24 24 23 21 23 24 24 26 26 26 25 28 29
24 20 17 17 17 19 19 19 19 20 18 18 17 16 17 17 18 20 22 19 18 19 19 22 22 22 24 27 31 24 25 25 27 28 29 26 27 31
20 16 15 15 16 17 16 15 15 16 13 15 15 15 17 16 20 19 19 20 19 20 21 21 21 23 20 18 29 37 28 28 28 28 29 29 28 30
20 18 14 16 16 16 16 15 16 16 15 15 14 15 18 18 16 19 21 21 19 21 23 24 23 23 22 22 24 29 35 29 28 27 27 29 31 36
18 16 16 15 16 17 17 15 13 14 16 17 16 17 18 19 19 22 23 27 27 24 22 23 26 34 30 29 25 27 32 36 34 29 29 27 26 28
18 16 16 15 15 16 15 15 14 15 15 14 15 18 19 20 21 22 23 24 23 24 24 25 28 31 30 28 26 27 28 32 35 36 35 32 28 24
15 16 15 14 12 12 15 14 15 15 16 15 16 17 18 18 22 23 24 25 25 24 25 28 30 31 30 30 29 28 27 28 30 29 32 37 37 37

GFSNE_sfc_temp_033.txt.gz
Temp
47 46 47 44 44 43 43 45 45 42 42 40 44 44 46 46 46 47 46 43 45 46 46 47 47 47 48 49 50 51 51 52 52 53 54 54 55 56
45 43 42 42 42 41 42 40 41 41 41 43 43 43 44 45 45 46 45 42 44 44 45 45 45 46 47 48 48 49 50 50 51 52 52 53 53 53
44 43 42 41 40 39 39 37 38 39 39 41 41 42 42 43 44 44 43 43 44 43 43 44 44 45 46 47 47 48 48 49 50 50 51 51 52 52
41 39 38 40 37 37 37 36 36 36 36 37 39 40 39 41 41 40 41 43 42 42 42 43 44 44 44 45 45 46 47 48 48 48 49 50 50 51
39 38 38 37 36 35 34 34 33 34 33 35 37 37 38 39 39 40 39 40 40 40 41 41 42 42 43 44 45 45 45 46 46 46 47 47 48 49
37 37 36 36 36 35 33 32 33 32 34 34 35 36 36 39 37 35 35 39 38 40 40 40 41 41 42 43 42 42 42 42 43 44 45 45 46 47
35 35 34 34 35 34 35 33 34 33 33 34 34 34 34 35 35 36 34 35 36 37 37 39 39 39 40 40 40 40 40 41 42 43 44 45 45 45
32 32 32 33 34 37 38 39 37 33 33 33 33 33 34 34 35 34 33 30 28 40 36 36 39 37 39 40 40 40 41 42 42 43 44 44 45 45
31 31 32 34 33 32 33 36 38 40 40 38 34 34 33 35 33 30 31 31 29 36 36 31 37 35 39 39 39 40 40 41 41 42 43 43 44 45
31 31 31 31 32 35 37 35 36 36 36 36 37 37 37 37 35 33 33 33 34 36 36 27 37 35 38 39 39 39 39 40 41 42 42 43 43 43
31 34 34 35 36 38 37 33 34 35 37 38 38 38 38 38 38 35 30 28 27 31 35 31 33 33 35 35 38 39 39 40 41 41 41 41 41 42
35 35 35 37 37 38 37 33 31 32 33 33 34 34 35 34 34 34 31 25 25 25 34 29 31 31 27 36 38 38 37 37 38 38 38 39 39 38
33 34 35 36 37 38 37 33 32 36 32 31 32 32 32 32 33 33 31 27 24 24 32 30 27 28 26 26 32 35 36 36 36 36 37 37 37 37
33 35 34 35 36 35 34 34 35 34 31 30 29 29 29 28 29 29 29 29 29 26 29 28 24 25 23 23 24 33 35 35 35 33 34 35 36 36
35 35 34 33 32 30 31 32 31 29 28 27 27 27 27 27 26 27 28 28 27 27 28 27 25 25 24 23 23 26 28 32 32 31 32 32 32 33
33 32 32 30 29 29 28 28 28 28 28 27 26 27 28 26 26 28 25 27 25 28 31 29 27 26 24 25 25 24 28 25 31 32 32 32 33 34
30 29 27 26 25 25 26 26 27 27 25 25 24 24 25 25 25 27 25 25 23 25 26 29 31 29 28 26 23 26 27 28 31 31 30 29 32 34
28 25 24 23 23 23 23 24 24 24 24 23 22 22 21 22 22 25 26 25 24 25 25 27 28 26 28 30 31 26 30 30 32 33 32 28 30 34
25 23 22 22 22 22 22 21 21 22 20 20 20 19 20 20 22 23 24 24 25 27 27 28 25 25 23 22 32 37 30 31 32 31 32 31 30 32
23 22 21 22 22 21 21 21 21 21 21 20 20 19 19 21 22 22 23 24 25 27 28 30 29 27 24 24 26 31 35 31 30 30 31 34 34 37
22 22 22 22 21 21 21 20 19 19 20 21 20 19 20 21 21 22 24 27 28 27 26 27 30 35 31 30 27 31 35 37 36 31 31 30 30 31
22 21 22 21 21 20 19 19 19 20 20 20 20 20 20 21 21 22 24 23 25 27 27 29 31 30 30 29 28 29 32 35 37 37 37 33 30 27
21 21 21 20 19 18 18 18 19 19 20 19 20 20 20 20 22 23 24 25 26 27 28 28 32 33 31 31 30 30 30 31 33 32 34 38 37 37

GFSNE_sfc_temp_036.txt.gz
Temp
57 54 51 48 50 48 48 51 46 41 44 50 50 52 52 51 50 52 52 49 47 47 48 47 47 47 48 49 49 50 51 52 52 53 54 54 55 55
53 49 46 46 45 45 42 42 43 42 40 42 45 44 47 49 50 49 50 47 46 47 46 46 46 46 47 47 48 49 50 51 52 52 53 54 54 54
45 43 40 41 41 40 40 39 37 37 35 35 39 40 39 39 45 48 49 48 48 47 46 46 45 45 46 47 47 48 48 49 50 51 52 52 52 52
46 45 45 42 38 37 37 36 35 35 35 32 33 33 33 38 40 42 45 46 47 46 45 44 44 45 45 45 45 46 47 48 48 49 50 50 51 51
41 42 39 37 35 35 34 33 33 34 32 32 33 37 36 37 36 41 43 45 46 44 45 45 44 44 44 44 45 46 46 46 46 46 47 47 48 49
39 39 39 37 35 34 34 33 33 33 33 33 35 36 36 37 38 38 39 43 42 45 44 44 43 43 43 43 44 43 43 43 44 44 45 45 46 47
37 36 35 36 38 35 35 33 33 32 34 34 34 34 34 37 39 41 38 40 41 42 41 43 44 44 44 45 44 43 43 43 43 44 44 45 46 46
33 33 33 34 35 37 37 37 37 35 33 33 33 35 38 40 40 39 37 34 31 42 40 39 43 42 44 45 44 44 43 43 43 43 44 44 45 46
32 32 33 34 33 34 35 36 37 39 40 39 37 38 38 39 37 33 34 33 32 38 39 35 41 39 43 45 44 43 43 42 42 42 43 43 44 45
32 34 34 33 34 34 36 36 37 39 40 41 40 40 40 41 39 36 35 35 38 40 41 32 40 39 43 44 44 43 43 42 42 42 43 43 43 44
35 36 37 37 37 38 38 36 38 39 41 39 39 39 39 39 39 37 33 32 31 35 40 35 37 37 40 41 43 43 42 42 41 41 42 42 42 42
38 38 36 38 38 39 39 38 35 36 38 37 39 39 39 39 37 37 35 29 28 27 39 32 34 34 29 39 41 42 41 42 41 41 41 40 40 39
37 38 39 36 37 38 37 37 35 38 37 36 36 37 38 38 38 38 37 32 27 27 36 33 30 31 29 29 36 39 39 40 40 41 40 40 39 39
36 38 38 36 36 35 35 35 35 35 36 35 34 34 35 34 35 34 34 33 33 30 33 31 26 28 26 25 27 35 38 38 37 36 37 38 38 39
38 36 35 34 33 33 33 33 32 34 33 32 32 32 33 33 31 31 32 32 31 31 31 30 28 27 25 24 25 28 29 34 35 33 34 34 35 35
35 36 33 31 30 31 31 33 33 33 32 32 32 33 33 32 31 33 31 32 30 32 35 33 31 29 26 26 26 26 29 26 33 34 34 34 35 35
34 34 33 32 31 31 32 32 32 32 30 31 30 29 30 30 30 32 30 29 27 29 32 35 35 33 31 29 26 29 29 30 32 32 31 30 34 35
32 31 30 30 29 29 29 29 30 29 30 28 28 27 26 26 27 29 29 29 28 29 29 31 32 30 31 33 35 30 31 31 34 34 34 30 32 36
30 30 28 28 28 28 28 27 27 28 27 26 26 25 25 25 25 26 28 28 28 30 30 31 30 29 26 25 34 39 32 33 33 32 33 33 31 34
28 27 27 28 28 27 27 27 27 27 27 26 25 25 24 24 24 25 27 26 27 28 29 31 31 31 28 27 28 32 36 32 32 31 32 35 36 39
28 27 28 28 27 27 27 27 26 25 25 25 25 24 25 24 24 25 26 28 28 27 26 28 32 37 33 32 28 31 36 37 36 33 32 31 31 33
27 27 27 27 27 26 26 26 25 26 26 26 25 25 26 25 24 24 25 25 26 26 26 29 32 32 31 29 29 31 33 36 38 38 38 36 31 28
27 27 27 27 26 26 25 25 24 25 25 25 25 25 26 25 26 26 25 26 26 26 27 28 31 32 32 32 32 31 31 32 34 33 34 39 38 37

GFSNE_sfc_temp_039.txt.gz
Temp
57 56 55 54 52 48 49 48 47 38 42 47 44 49 49 49 49 49 49 52 52 50 49 49 49 49 49 49 50 50 51 51 52 53 54 55 56 57
55 54 52 47 45 43 42 43 43 41 37 40 41 41 44 47 46 45 45 47 49 49 49 49 48 48 48 48 48 49 50 51 52 53 54 54 55 56
50 48 44 43 40 39 38 38 36 37 35 34 36 37 37 38 38 40 42 43 45 48 49 48 48 47 47 47 48 48 49 49 50 51 52 53 54 54
46 43 41 42 38 38 38 36 36 36 36 33 33 33 33 33 34 35 40 44 43 45 46 46 46 46 46 46 47 47 47 48 48 49 50 51 52 52
44 43 40 39 37 36 36 34 34 35 34 34 33 33 34 35 36 39 39 41 44 45 47 47 47 47 46 46 46 46 47 47 47 47 47 48 49 49
40 40 39 38 36 35 34 33 33 33 33 33 33 33 35 38 36 34 35 39 40 45 46 45 46 46 46 46 46 46 45 45 45 46 46 46 46 47
37 37 37 38 39 37 35 33 33 33 33 33 33 34 34 35 34 37 36 37 38 39 38 39 39 40 41 44 45 45 46 46 45 45 46 46 46 47
34 34 35 37 38 39 39 38 36 34 33 34 34 33 35 37 38 36 34 32 29 38 35 35 39 38 39 40 45 46 46 45 45 45 45 45 45 46
33 32 33 35 34 33 36 36 38 39 40 37 35 36 36 37 34 31 31 31 31 35 35 32 37 36 39 43 45 46 45 45 45 44 44 44 45 45
32 32 32 32 33 34 35 35 36 37 38 40 38 37 37 38 36 34 33 33 35 36 37 30 36 35 39 40 44 45 45 45 44 44 44 44 44 44
33 34 36 37 37 38 37 34 35 36 42 40 40 40 40 40 39 35 30 28 28 31 35 32 32 33 35 36 38 43 45 44 44 44 44 43 43 43
38 38 37 38 38 39 37 37 34 34 35 35 35 37 38 37 40 35 31 26 28 27 32 28 29 30 27 33 35 36 36 41 43 43 43 43 43 39
36 36 37 37 37 38 37 35 34 35 34 33 33 33 34 34 34 34 34 28 28 27 33 31 25 26 28 27 32 34 34 34 35 37 41 41 41 40
35 36 36 36 36 36 35 36 36 35 32 32 31 31 31 30 31 33 34 33 33 30 31 31 27 26 25 24 24 29 31 32 32 31 32 36 39 40
36 35 35 35 35 34 36 34 34 31 31 29 29 29 30 30 28 28 31 31 31 31 31 29 28 27 26 23 23 25 27 29 30 29 29 30 31 33
36 35 34 33 34 32 32 33 31 31 30 29 29 30 31 28 28 31 30 30 29 30 31 32 31 29 27 27 26 25 28 25 29 29 29 30 32 33
33 33 32 31 30 31 31 31 31 31 28 29 29 28 29 28 28 30 30 28 26 26 28 32 34 33 31 29 26 28 28 29 30 30 30 29 31 32
31 30 30 29 28 29 29 29 29 29 29 29 27 26 25 25 25 26 27 26 25 27 28 30 31 30 30 32 35 28 29 29 31 32 32 30 30 34
29 29 27 27 27 27 26 28 27 28 28 26 25 25 25 25 25 24 25 25 25 27 28 29 29 27 24 23 31 39 30 30 30 30 31 30 30 32
29 27 26 27 27 26 27 27 27 27 27 26 26 25 25 24 24 23 24 24 24 25 26 28 28 27 26 25 27 31 37 31 29 29 29 32 34 38
28 26 27 26 26 26 27 27 26 25 26 25 25 24 24 24 23 24 24 27 27 25 24 25 27 35 31 30 26 28 32 37 35 31 31 30 29 31
28 26 26 26 25 25 25 26 25 24 24 24 25 25 25 25 24 23 23 23 23 24 24 26 29 29 28 27 26 28 30 35 37 39 38 37 30 26
26 26 26 25 25 24 24 24 23 23 23 23 23 23 24 23 24 25 24 24 24 24 25 25 27 29 28 28 29 30 31 31 33 32 34 39 39 38

GFSNE_sfc_temp_042.txt.gz
Temp
58 55 52 51 50 50 49 49 48 38 37 39 39 41 45 44 48 46 45 50 53 53 52 51 51 50 50 50 51 51 51 51 52 53 54 55 56 57
53 52 51 47 46 46 45 45 45 43 36 38 36 38 40 43 47 43 44 44 45 47 49 50 50 50 50 50 50 50 50 51 51 53 53 54 55 56
50 49 44 44 42 41 40 40 39 40 37 33 34 36 36 39 39 39 40 39 40 45 47 49 49 49 48 48 48 49 49 50 50 51 52 53 54 54
45 43 42 42 40 40 38 37 37 38 38 33 33 33 34 35 36 35 39 43 42 45 47 47 47 48 48 48 48 48 48 48 49 49 50 51 52 52
43 42 41 40 37 37 37 36 36 36 35 36 33 33 33 34 34 36 37 38 41 44 46 48 48 48 48 48 48 47 47 47 48 48 48 49 49 50
40 40 39 38 37 37 36 34 34 34 34 34 33 33 33 34 34 33 32 36 35 42 44 45 46 46 47 47 47 47 46 46 47 47 47 47 47 48
37 38 37 39 40 38 36 34 34 33 33 32 32 32 32 31 30 32 31 32 33 35 32 32 33 34 36 42 43 45 45 46 47 47 47 47 47 47
33 33 34 37 40 41 39 38 37 34 32 32 32 29 30 31 31 30 27 25 23 32 28 32 32 33 33 34 42 45 46 46 47 47 47 47 46 47
32 32 33 35 34 33 38 38 38 39 39 34 30 30 30 31 29 26 28 24 24 29 28 29 30 31 32 39 43 44 45 46 46 46 46 46 46 46
32 32 32 32 32 33 33 33 34 34 35 37 32 32 32 33 31 29 28 27 28 29 30 24 28 30 32 31 41 43 43 44 45 45 45 45 45 45
32 33 33 33 36 38 34 30 31 31 41 41 40 41 41 40 38 29 22 19 22 25 29 26 27 27 28 32 31 41 43 43 43 43 44 44 44 44
33 34 39 36 39 39 33 30 28 28 30 31 31 32 34 33 40 31 23 14 15 18 27 21 24 25 21 28 29 32 31 37 40 40 41 42 42 39
31 31 31 38 38 38 37 28 30 31 31 27 27 27 28 28 28 28 29 19 13 23 31 30 14 19 26 26 29 29 30 29 29 32 36 37 38 39
30 29 30 36 36 36 34 36 36 34 26 26 26 25 24 22 23 25 29 28 28 27 29 30 26 23 25 24 24 28 28 29 29 28 29 33 36 38
30 34 35 35 35 31 34 35 34 25 25 24 25 21 20 21 20 21 23 30 30 31 32 31 28 27 26 25 24 26 28 29 30 28 26 27 28 29
32 27 33 34 35 33 31 30 27 26 25 22 22 25 25 19 20 21 20 29 28 28 32 32 27 26 26 27 27 26 27 25 27 29 29 29 29 30
31 27 26 26 24 26 26 26 26 26 23 23 23 25 28 27 26 28 27 27 25 25 27 29 31 32 32 30 27 28 28 28 29 28 28 28 30 31
27 24 22 21 21 24 24 24 24 28 28 26 26 25 24 24 24 25 26 24 23 25 26 28 29 28 29 30 34 28 29 29 30 30 29 28 29 32
24 21 19 19 20 20 18 17 25 27 27 26 24 24 24 24 25 23 24 23 23 24 26 27 26 25 22 21 29 38 29 30 30 31 30 29 28 30
25 23 17 19 19 17 16 18 26 26 25 25 24 24 24 23 23 23 23 22 22 22 22 23 25 25 23 23 24 29 35 29 28 27 28 30 32 37
24 19 19 17 17 15 16 15 24 25 25 24 24 24 24 23 23 22 21 26 26 24 21 21 24 33 29 28 23 26 30 36 34 30 30 29 29 31
24 19 19 18 16 11 12 13 15 19 19 17 18 19 21 21 22 22 22 21 22 22 22 24 27 27 25 23 23 25 27 31 35 37 37 36 30 27
19 19 17 15 12 12 12 14 16 19 19 17 18 19 19 19 22 23 23 23 22 22 23 23 25 27 25 25 26 25 27 28 31 31 34 38 38 38

GFSNE_sfc_temp_045.txt.gz
Temp
56 56 54 53 52 50 50 50 50 45 40 40 40 42 42 44 46 42 42 44 46 47 49 50 51 51 51 52 52 52 52 52 52 53 54 55 56 56
54 54 51 49 49 48 47 47 47 46 41 39 38 39 41 43 44 41 40 43 45 47 48 49 50 49 50 51 51 51 51 51 51 52 54 54 55 56
50 51 47 46 43 42 42 42 43 43 42 34 36 36 36 39 40 39 40 40 40 45 47 48 48 50 50 50 49 50 50 50 51 52 52 53 54 55
46 44 42 43 41 40 40 39 39 39 38 34 34 34 35 37 37 37 39 41 40 43 45 46 48 48 49 49 49 49 49 49 49 50 50 51 52 53
43 42 41 40 38 38 38 37 37 38 36 36 33 33 32 34 34 36 36 37 41 43 45 47 48 48 48 48 48 48 48 48 48 48 49 49 50 50
40 40 39 39 38 37 36 35 34 35 34 35 33 33 34 34 34 33 33 36 36 41 43 44 45 45 46 46 47 46 46 46 47 47 47 48 48 48
37 38 38 40 41 39 36 34 34 34 34 33 33 33 33 32 32 33 32 32 32 33 32 32 32 33 34 40 41 43 44 45 46 47 47 48 48 48
34 34 35 36 40 41 40 39 37 34 33 32 32 31 31 32 31 30 28 24 23 30 29 30 31 30 31 31 40 43 44 46 46 47 47 47 47 47
33 33 33 34 34 33 37 38 38 39 38 35 32 31 30 30 27 25 28 24 24 29 28 27 29 29 31 36 41 43 44 45 45 45 46 46 46 46
31 29 31 31 33 33 32 32 33 33 34 36 34 31 30 31 31 29 28 27 28 29 29 21 27 28 31 30 40 42 42 43 44 44 44 44 44 45
28 30 31 31 37 39 33 30 31 31 39 41 40 41 41 41 39 28 21 18 21 25 28 25 25 25 27 27 29 39 40 41 41 41 42 42 42 43
29 31 39 35 39 39 29 27 26 26 28 29 28 30 32 31 39 30 23 14 13 14 26 21 23 24 20 27 27 29 28 35 38 38 38 39 39 35
29 29 30 38 38 37 37 27 29 30 30 26 26 25 27 27 27 27 28 17 10 15 28 28 21 25 26 22 27 27 27 27 27 30 35 36 37 37
29 28 29 36 36 36 34 36 36 33 26 25 25 25 23 20 22 23 28 23 23 25 28 30 26 25 24 24 24 28 27 29 26 27 25 32 36 38
29 33 36 36 35 32 34 35 34 25 25 23 24 20 19 19 18 19 21 25 24 27 32 29 28 28 26 24 24 25 27 26 28 27 26 24 26 28
32 26 32 34 35 33 30 29 27 25 24 22 22 25 25 18 19 20 17 21 21 23 28 31 30 28 26 25 26 25 27 24 27 29 28 28 29 29
30 26 25 25 23 25 25 25 25 25 22 22 21 24 27 27 26 27 26 25 22 22 23 28 31 31 29 27 25 28 28 28 30 29 28 27 30 31
27 24 21 20 20 23 23 23 23 24 26 27 26 25 23 23 23 25 25 24 22 22 22 23 25 26 27 28 33 28 29 29 30 30 29 27 28 33
24 20 18 18 18 18 17 15 15 22 26 25 24 24 24 24 25 22 22 23 21 22 22 22 21 21 19 18 26 36 27 28 27 28 30 29 27 29
24 22 16 18 17 15 14 14 16 19 25 25 24 24 23 23 22 22 22 21 20 20 20 21 20 21 20 20 22 26 34 27 26 26 26 28 30 35
23 19 18 17 15 14 15 11 10 15 17 19 19 16 17 14 20 21 21 25 26 23 21 21 23 31 27 26 22 23 27 33 32 27 27 27 27 29
23 18 18 16 14 10 11 11 12 15 16 16 15 15 16 15 18 19 21 21 21 22 22 23 24 23 22 21 20 22 25 28 33 34 35 34 28 24
18 18 16 14 10 9 8 10 13 16 16 16 16 17 16 17 19 21 21 22 22 21 21 21 23 24 23 23 24 24 24 25 27 27 29 36 37 37

GFSNE_sfc_temp_048.txt.gz
Temp
54 56 54 54 53 53 52 51 50 44 41 42 42 43 44 47 50 46 46 50 50 49 49 49 49 49 49 50 51 52 53 54 54 54 54 55 56 57
54 54 53 50 50 49 48 48 48 48 43 41 40 40 42 44 47 43 44 47 48 48 49 49 48 48 49 50 50 52 52 53 53 53 54 55 56 56
49 49 47 47 45 45 44 44 44 44 43 38 37 37 38 40 42 40 42 41 42 47 48 48 47 48 49 50 51 51 51 51 52 52 53 54 54 55
45 44 42 44 41 41 41 40 40 41 40 36 35 35 35 37 37 37 39 41 40 42 45 46 47 47 49 49 49 50 50 50 50 50 51 52 52 53
42 42 41 41 39 39 39 38 38 38 36 36 33 34 33 34 33 35 36 37 40 42 43 45 46 47 48 49 49 49 49 49 49 49 49 50 50 50
39 39 39 39 38 37 36 35 35 35 35 35 34 33 33 34 34 34 33 35 35 39 42 44 45 46 46 46 46 46 46 46 46 47 47 48 48 49
36 38 39 41 42 40 37 34 34 34 33 33 33 33 33 33 32 34 32 32 34 35 34 33 32 33 34 40 41 43 44 44 45 46 47 48 48 49
34 34 35 36 38 42 41 40 38 34 33 33 32 31 31 32 32 31 29 27 24 30 29 29 31 31 32 31 39 42 43 44 45 46 46 47 47 48
31 30 32 34 33 33 36 37 37 39 38 33 31 30 29 30 28 24 26 21 23 27 27 26 28 29 30 35 40 42 43 44 45 45 45 46 46 47
23 22 23 27 33 33 29 29 30 31 32 35 32 30 30 30 29 26 26 25 27 28 28 20 25 26 29 29 38 41 42 43 44 44 44 44 44 44
27 28 29 29 39 40 30 27 28 29 37 40 39 39 40 40 37 27 21 17 20 24 27 25 24 25 26 26 28 39 40 40 40 41 41 41 41 42
28 30 38 35 39 39 28 26 25 26 27 28 28 29 31 30 37 30 22 12 12 15 25 20 23 24 18 26 27 28 28 35 38 39 39 39 39 33
28 29 30 38 37 37 37 27 28 30 29 25 25 25 26 26 26 26 27 15 8 12 27 25 21 26 26 23 26 27 26 28 28 31 36 38 39 37
29 29 28 37 37 37 33 36 37 34 25 25 24 24 22 19 21 22 26 22 22 21 25 25 26 25 23 24 24 27 26 26 26 27 27 32 36 38
29 33 36 36 36 32 34 36 32 25 24 22 23 19 18 18 17 18 20 23 21 23 28 29 28 27 26 25 24 26 28 24 26 26 26 25 26 26
32 26 32 33 34 32 29 28 26 25 24 21 21 24 24 16 19 23 24 27 17 22 25 24 29 28 26 26 26 24 25 23 22 24 24 28 28 28
31 26 25 24 22 24 24 25 24 24 21 21 21 23 27 27 26 22 25 25 20 19 21 22 25 26 27 25 24 26 25 26 29 29 30 29 31 32
28 23 20 19 19 22 22 22 22 23 21 26 26 25 24 24 24 25 24 19 20 20 20 20 16 18 21 24 31 26 27 27 29 29 29 27 27 30
24 20 17 17 17 17 16 13 13 17 15 21 24 24 24 24 24 22 20 21 20 20 20 21 10 12 17 16 23 35 24 25 25 24 26 26 26 28
23 21 16 17 17 15 13 12 13 15 15 17 15 23 23 23 22 20 19 18 18 19 19 21 20 19 18 18 20 25 32 25 24 24 24 27 29 34
22 18 18 16 15 14 14 10 8 11 12 9 9 12 12 11 15 17 18 24 24 21 20 20 24 31 26 24 21 22 26 32 31 25 24 24 24 27
22 18 18 16 14 10 10 9 10 13 13 12 12 11 12 11 14 16 17 17 18 19 20 22 23 22 21 20 19 20 22 27 31 33 34 32 26 22
18 18 16 14 11 8 7 8 11 13 13 13 13 14 12 13 16 18 18 19 19 19 20 20 22 23 22 22 23 22 23 24 25 25 27 34 34 35

GFSNE_sfc_temp_051.txt.gz
Temp
56 56 54 52 51 52 52 52 50 45 43 45 43 43 43 43 48 49 48 52 54 55 54 53 52 52 52 52 53 53 52 53 53 53 54 56 56 57
52 52 52 50 50 49 49 49 48 48 43 44 41 40 42 44 47 45 46 51 53 53 52 51 50 50 50 51 51 51 52 52 51 52 54 55 56 56
47 47 45 45 44 43 44 43 43 44 42 40 38 38 39 41 41 41 44 42 45 50 50 50 50 49 49 49 50 51 51 52 52 53 54 54 55 55
44 44 42 44 41 41 41 40 40 41 39 38 35 36 36 38 38 39 40 42 41 43 47 47 48 48 48 49 49 50 50 51 51 51 52 52 53 53
40 39 39 40 39 39 38 38 37 38 36 36 34 34 34 35 34 36 37 37 40 41 43 45 46 47 47 47 48 49 50 49 50 50 50 50 51 51
38 38 37 38 38 37 35 35 35 35 35 35 35 34 34 34 34 34 33 35 35 39 40 42 42 45 46 47 47 47 46 47 47 47 48 48 48 49
36 37 38 41 43 41 37 35 35 34 34 34 34 34 33 33 32 34 33 33 33 34 34 34 34 34 34 39 41 43 44 45 45 46 47 47 47 48
33 33 35 37 37 43 43 43 39 33 33 33 32 31 31 32 32 32 30 28 25 30 28 30 31 31 30 31 38 41 42 44 45 45 46 47 48 48
26 26 32 33 33 29 36 38 38 40 39 31 28 27 27 27 25 22 25 21 23 27 27 24 27 27 28 33 39 41 43 44 44 45 46 46 47 47
24 19 20 22 28 29 28 28 29 29 32 34 29 28 28 29 28 25 25 24 27 28 27 19 24 25 27 28 37 40 42 43 44 44 45 45 45 44
26 27 29 29 39 38 29 27 27 28 36 38 38 38 39 39 37 26 24 17 20 24 26 24 24 24 26 25 28 37 41 41 41 41 41 42 42 42
28 29 36 35 39 39 28 26 25 26 27 28 27 29 30 29 36 28 22 12 12 14 25 20 22 23 18 26 27 28 28 35 38 39 40 40 40 33
28 29 30 37 38 38 37 27 28 29 29 25 25 24 25 26 26 26 26 14 7 11 26 22 12 26 27 23 26 27 27 28 27 30 35 37 38 38
29 29 28 36 37 37 34 36 37 32 25 24 24 23 21 19 20 21 25 21 20 20 23 18 18 20 23 24 24 26 25 26 24 27 27 32 36 38
29 32 35 36 36 32 34 36 32 24 24 21 22 18 17 17 16 18 20 23 20 22 27 17 20 24 26 24 23 24 27 25 27 26 25 25 24 24
33 26 32 32 33 31 29 28 26 24 23 20 20 23 23 16 19 27 24 26 26 21 24 20 18 22 25 26 26 24 25 22 20 20 21 26 29 29
31 26 25 24 22 23 24 24 23 24 20 20 20 24 27 27 26 27 25 25 21 18 20 21 24 23 23 23 23 25 26 26 28 27 26 27 31 32
28 24 21 19 18 21 21 21 21 22 20 19 20 25 24 24 24 25 25 17 17 19 19 18 15 15 19 21 29 23 25 26 27 26 26 25 26 29
24 20 18 17 17 17 16 13 12 15 11 13 13 14 21 23 24 23 22 17 19 19 19 15 7 12 15 15 21 34 23 24 24 24 25 24 24 27
23 21 16 17 16 15 13 12 13 14 13 14 10 9 11 13 19 19 18 16 16 17 17 17 19 19 17 16 17 23 32 25 23 22 23 25 27 33
22 18 18 16 15 14 14 11 8 10 11 8 5 6 9 6 14 14 15 22 22 19 18 18 21 29 24 22 19 21 25 32 31 24 24 23 23 25
22 18 18 16 14 11 10 9 9 11 11 11 11 9 10 9 12 13 15 14 16 17 18 19 20 16 17 19 19 19 22 25 30 32 33 31 25 22
19 18 16 14 11 9 7 8 10 11 12 11 10 11 9 9 14 15 17 18 18 18 18 18 20 21 21 20 22 21 22 22 24 24 26 33 33 34

GFSNE_sfc_temp_054.txt.gz
Temp
55 55 54 53 52 52 52 51 49 44 45 45 44 41 41 43 46 46 46 51 55 56 57 57 54 54 53 54 55 55 55 55 55 55 56 55 55 55
51 49 48 48 48 47 47 48 48 47 44 43 42 41 42 45 46 45 46 49 51 54 55 54 52 51 51 51 52 53 53 53 54 54 54 54 54 54
45 44 44 45 44 43 44 44 43 44 42 41 39 39 40 41 41 43 43 43 45 51 52 50 50 51 51 51 50 50 51 52 53 53 53 53 54 54
40 42 41 44 41 41 41 40 40 40 40 38 36 36 36 38 39 39 41 42 41 44 47 47 48 48 49 49 49 50 49 50 51 52 52 52 53 54
36 36 36 36 35 37 38 37 37 38 37 37 35 35 35 36 35 36 37 38 41 42 43 45 46 47 48 48 48 48 49 49 49 49 50 51 51 52
39 39 38 36 34 33 35 35 34 35 35 36 35 34 34 35 35 34 34 36 36 39 41 42 43 44 45 45 46 46 46 47 47 48 48 48 48 49
36 38 39 41 44 41 37 35 35 34 34 34 34 34 33 33 32 33 33 33 34 35 34 34 33 34 35 39 40 42 44 45 45 46 47 48 47 48
32 32 35 36 37 43 42 42 40 33 30 25 25 28 27 28 28 27 26 23 22 28 27 29 30 30 31 31 39 41 42 43 44 45 46 46 47 48
25 25 30 32 30 27 35 37 37 40 39 30 27 26 26 26 24 21 24 20 22 27 26 24 27 27 29 32 38 40 42 43 44 45 45 46 47 47
20 17 19 21 27 29 27 28 28 29 31 32 28 28 28 28 28 24 25 23 26 27 26 17 24 25 27 28 36 39 41 42 43 44 45 45 45 45
26 27 29 29 40 38 29 27 26 28 35 37 37 38 38 38 36 26 20 16 20 24 25 23 23 24 26 25 28 38 40 41 42 42 42 42 42 43
27 29 37 35 39 39 28 26 25 26 27 27 27 28 29 29 34 27 21 11 12 13 24 19 22 23 18 26 27 28 30 36 38 38 39 41 41 34
29 29 30 37 38 38 36 27 28 29 28 25 24 24 25 25 25 25 25 13 6 10 26 20 9 19 21 20 26 27 27 28 28 30 36 38 39 38
29 29 28 37 38 37 33 37 37 30 25 24 23 22 21 19 20 20 24 21 20 19 22 16 12 13 11 20 22 26 25 26 25 28 26 32 36 37
29 32 35 36 35 31 34 35 31 24 23 20 21 17 16 17 15 17 19 22 20 22 27 15 14 11 19 22 23 23 26 24 25 24 25 23 24 24
33 25 32 32 33 31 28 27 25 24 22 19 19 22 23 15 17 26 25 19 19 19 23 18 13 14 22 24 24 24 25 23 19 20 21 23 26 28
31 26 25 24 22 24 24 24 23 23 19 20 19 20 25 26 27 27 26 24 23 15 19 22 23 21 20 20 19 22 23 24 25 25 26 26 29 29
27 23 21 19 20 22 22 21 21 21 19 17 15 15 18 18 19 23 25 23 17 18 18 17 14 14 17 21 27 21 22 22 24 24 24 24 25 28
24 20 17 17 18 19 18 15 13 15 10 10 8 8 12 12 22 16 19 21 17 17 18 13 6 9 13 13 20 33 22 22 23 23 24 24 23 26
23 21 17 19 19 17 16 15 13 13 12 12 8 6 6 6 12 17 18 12 14 16 15 12 12 16 16 15 17 23 32 23 22 22 22 25 26 32
22 19 18 19 17 16 16 14 9 10 9 7 3 3 6 2 10 12 13 21 21 18 16 17 20 28 24 22 18 20 24 31 30 24 23 22 23 24
22 18 18 18 17 15 11 10 10 11 10 9 9 7 8 6 9 11 13 12 15 16 17 18 19 16 17 17 17 18 21 25 30 32 33 31 25 21
20 19 17 16 15 12 7 9 11 11 10 9 9 10 7 8 12 14 16 17 17 17 17 17 18 19 19 18 20 20 21 22 24 23 25 32 33 33

GFSNE_sfc_temp_057.txt.gz
Temp
55 55 55 53 54 53 54 54 51 48 47 50 49 49 47 48 49 52 52 51 52 54 56 57 57 55 56 58 55 54 54 54 54 56 57 57 57 57
53 53 52 51 49 48 50 50 50 49 45 48 44 44 44 47 47 48 50 49 50 52 54 54 54 54 53 51 51 52 53 54 54 55 55 57 56 56
48 49 47 47 46 46 48 48 48 48 45 44 43 43 44 43 44 45 47 46 45 49 51 51 51 51 51 51 51 51 51 52 52 53 54 54 55 55
45 45 44 46 45 45 46 45 44 43 43 41 39 40 40 41 40 42 42 43 43 46 48 48 49 49 49 49 49 50 50 51 50 50 51 51 51 52
42 43 42 43 42 42 42 42 41 41 41 41 38 39 39 39 40 40 39 40 41 43 44 45 46 47 48 48 49 50 49 49 49 47 47 48 49 51
41 42 42 42 41 41 40 39 39 39 39 40 38 38 37 37 37 36 37 38 37 40 41 43 44 44 45 45 45 45 45 45 46 46 48 49 49 50
39 40 41 43 43 43 41 39 39 38 37 38 37 38 38 38 34 38 38 39 40 38 39 41 41 42 44 43 42 42 43 44 45 46 47 48 48 49
36 36 38 37 39 43 42 43 41 38 33 34 35 36 35 36 38 36 36 36 35 38 38 40 41 41 42 42 41 42 43 44 44 45 45 46 47 47
32 33 34 35 34 34 38 37 39 40 39 38 36 35 35 36 34 33 34 34 35 38 36 35 39 37 41 40 39 40 42 43 44 44 45 46 46 47
30 29 33 33 35 34 34 34 35 37 37 37 37 37 37 37 36 35 35 34 36 37 36 31 36 36 39 39 36 39 40 42 43 44 45 46 46 46
34 35 37 37 40 37 35 32 34 34 37 37 37 37 37 37 38 36 33 31 31 34 35 33 35 34 36 37 39 38 39 40 42 44 43 43 44 44
35 35 37 38 39 38 35 34 32 33 33 34 34 34 33 34 34 35 33 29 29 30 34 31 32 32 31 37 38 39 39 38 39 39 40 40 42 43
34 34 35 38 38 38 35 35 34 35 32 32 32 33 33 33 34 33 32 29 28 29 34 32 29 31 31 30 35 37 37 38 38 38 38 38 39 40
34 35 35 37 37 38 35 37 36 32 32 30 30 30 30 31 31 31 31 31 31 28 32 28 27 28 27 26 28 35 36 36 36 35 36 36 36 38
35 35 36 35 35 33 35 35 31 31 29 28 28 28 29 30 27 28 29 30 30 30 31 28 27 27 26 25 27 29 29 34 34 33 33 33 34 35
35 33 34 34 33 33 31 31 30 30 29 28 28 29 30 28 29 30 28 29 28 29 30 30 26 24 25 27 27 25 29 27 33 33 32 32 34 34
34 31 30 30 29 29 29 29 29 29 28 28 27 27 28 29 29 31 29 28 26 26 27 29 30 29 27 25 24 27 28 30 32 31 30 30 32 34
32 29 28 28 27 27 27 27 28 27 27 26 26 25 25 25 26 27 28 27 25 25 25 27 26 24 26 29 29 27 29 29 30 30 29 27 27 33
31 29 27 26 26 26 26 25 24 26 23 23 23 23 22 22 24 24 25 25 24 25 25 25 23 20 19 19 30 33 27 29 29 29 30 29 28 31
29 28 27 26 26 25 25 24 24 24 23 23 22 21 20 19 20 21 23 21 22 22 22 23 21 20 19 21 23 28 32 28 28 28 28 31 32 33
27 26 26 25 25 25 24 24 22 22 22 20 20 18 19 18 18 19 20 22 23 23 21 22 26 29 25 25 21 24 29 31 31 28 28 26 25 27
27 26 26 26 25 24 23 22 21 20 20 20 19 18 19 18 16 17 18 18 20 20 21 23 25 23 22 20 20 22 26 30 32 32 33 31 27 23
27 27 26 25 24 23 22 20 19 20 20 19 19 19 18 16 18 18 19 20 20 20 21 21 23 24 22 21 22 22 23 25 28 28 30 33 33 33

GFSNE_sfc_temp_060.txt.gz
Temp
56 55 53 52 54 55 57 56 54 50 54 57 57 53 54 54 50 55 56 50 53 54 55 55 55 55 57 57 59 56 55 54 54 54 54 56 57 59
57 54 53 52 53 53 54 56 52 52 49 52 51 48 49 52 49 51 50 50 51 52 54 54 54 55 55 54 53 52 53 52 53 53 55 56 57 58
52 52 52 54 53 53 54 51 51 52 48 43 45 48 50 50 50 50 48 48 48 50 50 51 51 51 51 52 51 52 51 51 52 52 54 55 56 55
52 52 51 52 52 52 52 52 51 51 50 47 44 46 45 46 46 46 46 47 47 47 48 48 49 49 49 49 49 50 50 51 51 51 52 52 52 53
50 50 48 50 49 49 49 48 48 47 46 45 41 43 42 42 41 44 45 45 46 45 46 46 47 47 47 48 48 48 48 48 48 48 47 48 49 50
46 46 47 47 46 45 44 44 43 44 44 44 41 41 40 40 40 39 44 45 44 47 46 45 45 44 45 45 45 44 45 45 46 47 47 48 48 50
43 43 43 44 44 44 44 43 43 43 41 41 41 42 42 41 39 42 43 44 46 45 46 47 47 48 48 46 44 43 43 44 45 46 47 48 48 49
41 41 42 41 43 43 43 43 43 42 37 39 41 42 41 42 44 42 41 40 39 44 42 44 46 45 47 47 44 42 43 44 44 45 46 46 47 48
35 36 38 40 38 39 40 39 40 41 40 43 42 42 41 41 38 37 38 38 39 42 40 39 44 42 46 45 41 40 41 42 43 44 45 45 46 46
34 34 36 36 38 39 39 39 40 41 41 42 42 42 42 42 41 38 39 38 41 42 40 34 42 41 44 45 38 39 41 42 42 43 44 45 46 46
38 40 42 42 40 38 39 36 39 39 39 37 37 37 37 37 39 40 36 34 35 38 40 36 39 38 41 42 43 38 40 40 41 43 44 43 43 44
40 40 38 41 39 38 39 39 37 38 38 38 39 38 37 38 35 38 37 31 33 33 38 34 36 35 33 43 42 43 43 41 39 40 41 41 42 41
40 39 40 38 39 39 37 39 37 39 37 37 38 38 38 38 38 38 36 33 31 32 37 35 31 33 33 33 39 41 41 41 41 42 40 40 40 40
38 39 39 37 37 38 38 37 37 35 37 36 35 36 35 35 35 35 34 34 35 32 35 32 30 30 29 28 31 39 40 41 40 38 39 39 39 39
39 38 37 36 36 35 35 36 33 36 35 33 33 33 34 35 31 32 32 32 32 33 33 32 30 30 28 26 29 31 32 37 37 36 36 37 37 38
37 37 37 36 34 36 34 34 35 36 34 34 33 34 35 32 32 34 31 32 30 32 33 32 31 29 28 30 29 28 32 29 36 36 36 36 37 38
37 36 35 35 35 35 34 34 35 34 33 33 32 32 33 33 32 34 32 31 29 30 31 33 33 32 31 28 26 30 32 33 35 34 33 32 35 37
36 34 34 34 34 34 33 33 34 32 33 32 31 31 30 30 30 31 31 30 29 30 30 32 31 29 29 32 32 28 32 33 34 34 32 29 30 35
35 36 33 33 33 33 32 32 31 32 31 29 29 29 28 28 27 28 29 29 28 29 30 31 28 26 22 22 33 34 29 31 32 31 33 32 31 33
35 34 34 34 33 32 32 31 31 31 30 29 28 27 26 25 25 26 27 26 26 27 27 28 27 26 23 23 25 31 34 30 30 30 31 34 35 37
34 33 34 33 32 31 31 30 30 29 29 28 27 26 25 25 24 25 25 26 27 26 25 27 30 33 29 28 23 25 31 33 32 28 29 28 27 29
35 33 33 32 31 31 30 29 29 28 27 27 27 26 26 26 24 24 25 24 25 25 25 28 29 28 25 22 22 24 27 32 35 35 34 32 27 25
34 33 33 31 31 30 29 28 27 27 28 27 26 26 25 24 25 24 24 24 24 24 25 25 27 28 26 24 24 23 24 26 29 30 32 35 34 34

GFSNE_sfc_temp_063.txt.gz
Temp
55 55 53 52 52 53 55 55 54 49 52 55 54 54 53 53 49 53 52 52 54 55 55 55 55 55 56 58 59 58 57 58 57 57 56 56 56 57
56 54 52 52 52 53 52 52 52 52 49 52 49 50 51 52 50 51 50 50 51 53 52 52 53 55 55 55 55 55 55 55 55 55 55 55 56 57
53 52 52 55 53 53 53 53 53 52 50 45 46 48 49 48 48 49 48 47 48 49 50 51 51 51 51 52 53 53 53 53 52 53 53 54 55 55
54 53 52 54 52 53 52 52 51 50 48 47 44 44 44 45 46 45 46 47 46 47 48 48 49 49 50 50 50 50 50 51 52 52 53 53 53 54
51 50 50 51 48 49 48 47 46 46 45 43 40 43 42 41 41 43 44 44 47 47 47 47 47 47 48 48 48 48 48 49 49 49 49 49 50 51
47 47 47 47 46 45 44 44 44 44 44 43 41 40 40 40 40 39 41 44 43 47 47 45 46 45 45 46 45 45 45 46 47 47 48 48 48 49
44 43 43 44 44 45 43 43 43 41 39 40 40 40 40 40 38 40 37 39 42 41 40 42 42 43 43 46 45 44 44 44 45 46 47 48 48 49
41 41 42 42 43 44 43 42 41 40 36 36 38 39 39 38 40 36 35 33 32 39 36 36 40 37 40 40 43 42 42 43 44 45 46 46 47 47
35 36 38 40 38 37 40 41 41 41 41 40 37 37 37 37 34 33 34 33 33 36 34 32 38 35 38 43 42 41 42 42 43 44 44 45 46 46
34 33 35 35 37 38 38 37 38 39 39 41 39 38 38 38 37 36 34 33 35 36 35 28 36 34 37 38 40 40 41 41 42 43 44 45 45 46
36 40 41 41 39 39 37 34 37 37 39 38 38 38 38 38 38 34 31 30 29 32 34 30 33 32 34 35 36 40 41 42 41 43 44 44 44 44
38 39 39 40 40 39 37 36 34 35 35 35 35 36 36 36 36 34 32 26 28 28 31 28 29 30 26 35 35 36 35 43 41 41 41 42 42 39
37 37 38 39 39 39 38 36 34 36 35 33 34 34 34 34 34 33 32 29 26 27 31 30 28 27 27 27 32 34 34 34 34 36 42 42 41 41
36 37 37 37 38 39 38 39 38 35 34 33 32 32 31 31 31 31 31 30 30 28 30 28 23 27 27 26 25 31 32 32 31 30 30 37 40 41
37 38 38 37 37 36 37 37 37 32 32 31 31 29 30 30 28 28 29 30 31 29 31 26 28 28 28 26 25 26 27 28 31 29 28 28 29 29
38 35 36 37 37 36 34 34 32 33 32 30 30 31 31 28 27 29 27 28 28 28 32 29 30 28 25 25 25 25 27 24 27 27 28 28 30 32
37 34 33 33 32 32 32 33 32 32 29 30 29 29 31 29 29 29 28 26 25 25 26 29 30 28 28 25 23 25 26 27 28 28 27 31 32 30
34 32 32 32 32 32 32 31 32 31 29 29 28 27 26 26 26 27 26 25 24 25 24 26 25 25 25 28 32 24 25 26 28 30 32 28 29 31
33 33 32 31 30 30 29 28 28 29 27 27 25 24 24 24 25 24 24 25 24 24 24 24 21 22 20 18 25 37 25 26 25 27 28 28 27 29
34 33 32 31 31 30 29 28 28 28 27 26 25 23 22 22 22 22 23 22 23 23 23 21 20 22 22 21 21 26 34 27 26 25 25 28 31 36
33 33 32 32 30 30 29 28 27 27 27 25 24 22 23 23 22 22 22 27 26 23 22 23 25 34 28 27 23 23 26 33 31 25 24 24 25 26
34 32 32 32 30 30 29 29 28 27 26 24 25 25 25 24 22 22 24 23 24 25 25 26 28 27 25 23 21 22 24 27 32 34 35 33 26 22
34 33 33 32 31 30 29 29 28 27 26 25 26 26 25 24 25 25 24 24 24 23 24 23 25 26 24 24 24 23 24 24 25 25 27 34 35 35

GFSNE_sfc_temp_066.txt.gz
Temp
54 54 53 52 53 54 55 54 53 48 48 50 45 45 46 45 49 47 47 52 54 54 54 55 55 55 57 59 60 59 59 60 61 61 61 60 60 59
53 52 51 51 51 52 52 52 52 51 48 48 44 44 46 48 48 47 49 49 50 52 52 52 53 54 55 55 56 57 57 57 58 58 58 57 56 56
51 50 50 52 51 50 49 49 47 49 47 43 45 46 45 44 44 46 47 46 46 49 50 51 51 51 52 52 53 53 54 54 54 54 54 54 55 55
51 50 49 52 48 47 46 44 44 42 42 44 42 42 41 40 38 44 46 47 45 47 48 49 49 49 50 50 50 51 51 51 52 53 54 54 54 55
45 44 43 43 41 41 42 43 40 43 41 40 38 40 39 38 40 42 43 38 43 48 48 49 48 48 49 49 48 48 48 49 49 49 50 50 51 52
42 41 41 41 43 43 42 42 42 40 41 40 39 37 38 38 39 36 34 37 36 43 45 45 47 46 47 47 46 45 45 46 47 48 48 48 48 49
41 42 41 43 45 45 41 40 40 37 37 37 36 37 38 36 34 33 31 32 33 34 32 34 35 36 38 43 44 44 44 44 45 46 47 48 48 49
39 37 38 40 42 44 43 43 40 37 35 34 35 35 33 31 31 29 28 23 24 31 29 29 32 32 33 34 44 43 42 43 43 44 45 46 47 47
34 33 35 38 36 33 40 42 41 42 40 33 30 29 29 30 28 27 27 25 26 30 29 26 30 30 32 39 42 42 42 42 43 43 44 45 45 46
32 31 30 30 33 35 33 33 33 33 34 36 31 30 30 31 31 30 29 28 29 30 30 21 28 29 31 32 42 41 41 42 42 43 43 44 45 45
31 34 36 34 40 40 34 31 32 32 39 39 39 39 38 38 37 29 24 21 23 27 28 27 27 27 29 30 32 42 42 43 42 42 43 44 44 44
33 35 40 38 41 39 32 31 30 30 31 31 30 33 34 33 37 29 24 16 19 20 27 23 25 26 21 29 31 31 32 41 43 43 42 42 42 35
32 32 33 40 40 40 39 30 31 32 34 30 29 29 29 28 28 28 28 19 15 16 29 23 16 20 18 22 27 30 29 31 31 33 40 41 42 40
33 33 33 39 39 39 37 38 38 36 30 29 29 28 25 23 24 25 28 26 24 22 25 23 14 15 15 22 22 27 27 29 26 27 26 35 39 40
33 36 39 38 38 36 38 38 38 30 29 28 27 23 22 22 21 22 24 25 24 26 29 20 18 17 24 24 24 26 25 25 29 24 24 24 25 25
38 31 35 36 36 34 34 33 30 29 28 25 24 27 26 20 22 22 20 21 19 22 28 26 22 21 25 26 26 24 22 21 22 24 26 27 28 29
34 31 30 29 29 29 29 29 29 29 26 25 24 25 28 25 25 22 22 19 17 17 21 24 27 25 24 18 19 23 23 23 25 25 23 26 31 33
33 30 29 28 29 30 30 30 29 30 25 23 21 20 21 20 20 21 19 17 16 19 19 20 19 25 22 23 29 23 24 22 24 24 26 28 29 30
32 30 30 29 30 29 28 25 23 24 19 18 16 15 15 16 23 18 18 17 17 17 17 16 13 11 15 19 22 33 23 18 22 25 23 24 25 27
32 31 30 30 29 28 27 26 24 22 21 19 15 15 15 14 14 16 17 15 14 14 14 11 10 10 18 20 18 23 34 17 18 23 25 26 28 33
32 29 30 29 28 28 27 26 24 23 20 19 19 18 16 14 17 17 16 26 24 16 20 21 23 30 26 26 22 23 26 32 31 24 20 22 23 26
32 31 31 31 30 29 27 26 25 27 23 20 20 19 21 20 21 18 18 17 20 22 23 26 26 26 24 23 21 23 24 27 31 33 33 31 25 22
32 31 31 31 30 29 28 28 27 27 26 25 23 23 23 22 23 24 24 24 23 23 23 23 24 25 24 23 24 23 24 24 25 24 26 33 33 34

GFSNE_sfc_temp_069.txt.gz
Temp
54 52 53 52 52 53 55 55 54 48 50 48 46 46 46 47 49 48 48 52 53 54 54 54 54 56 58 59 59 60 60 61 61 62 62 62 62 63
51 51 51 51 51 51 51 52 52 52 49 47 44 46 47 48 48 47 48 48 50 51 52 52 53 53 54 55 56 57 57 58 59 60 60 60 59 58
48 49 50 51 50 49 49 49 48 48 47 43 44 45 43 44 45 46 46 45 46 49 50 51 51 52 52 52 52 53 54 55 55 55 55 55 55 55
49 49 49 51 47 47 47 45 44 41 44 43 42 41 41 40 38 43 45 46 44 47 49 49 49 50 50 50 50 51 51 51 52 53 54 54 54 55
45 45 45 45 42 41 41 43 42 41 38 37 38 40 38 39 39 41 42 37 42 47 48 48 48 48 49 49 48 48 48 49 49 50 50 51 51 52
40 40 40 40 40 41 42 42 42 40 41 39 38 37 38 38 38 33 33 34 34 41 43 45 46 47 48 47 46 46 45 46 47 48 48 48 48 49
42 42 41 42 45 44 41 40 40 38 37 36 36 37 37 36 32 31 30 30 31 31 31 32 33 33 36 44 44 44 44 44 45 46 47 48 48 48
39 38 39 40 43 44 44 43 41 38 36 35 32 33 31 31 30 28 28 23 24 29 28 29 30 30 31 32 44 43 43 43 43 44 45 46 46 47
34 33 35 37 35 34 41 42 42 43 39 34 31 30 30 30 29 27 27 24 26 28 28 26 28 29 31 37 43 42 42 42 43 43 43 44 45 45
32 29 28 29 32 33 32 32 32 33 34 36 31 30 30 30 31 30 29 27 28 29 28 21 26 28 29 30 43 42 42 42 43 43 43 44 44 45
30 33 34 34 40 41 33 31 31 32 40 40 39 39 39 39 36 29 24 22 22 26 27 26 25 26 27 28 31 42 43 44 43 43 43 43 43 43
31 33 40 36 41 40 32 31 29 29 31 31 31 33 34 34 38 29 25 15 18 19 26 22 25 25 21 28 29 30 30 40 42 42 42 43 43 33
32 32 33 41 41 40 37 30 31 31 34 29 29 28 29 29 28 28 28 19 14 15 28 22 13 19 17 20 26 28 27 29 29 31 37 39 41 39
32 32 33 41 40 40 37 38 39 36 29 29 29 29 27 25 25 25 28 25 24 22 25 20 13 14 10 13 20 26 25 26 25 26 25 33 37 39
33 35 38 40 39 37 39 39 39 30 29 28 28 25 25 25 22 21 23 24 23 25 28 17 17 11 14 12 15 20 25 24 27 20 22 22 24 25
38 34 37 36 36 34 34 34 30 29 29 27 27 29 27 21 23 22 19 21 18 21 27 24 19 17 12 19 22 24 25 19 20 21 23 26 26 27
34 31 30 30 29 29 29 30 29 29 27 28 27 27 29 27 25 21 21 18 16 16 20 23 25 23 22 16 20 22 22 21 22 22 20 22 26 27
34 30 29 29 29 30 30 30 29 31 28 27 25 24 24 22 21 20 18 16 15 17 16 18 19 25 26 25 28 24 24 21 21 22 22 17 25 26
32 29 29 29 29 29 28 27 27 28 27 25 24 22 19 17 23 17 17 16 15 15 15 14 9 9 9 18 23 34 22 15 17 22 22 21 23 26
32 30 29 29 30 28 27 27 27 25 26 25 22 19 18 19 18 13 13 11 11 12 14 9 7 7 14 17 16 24 32 15 15 22 22 24 26 32
31 31 31 29 29 30 30 28 27 26 25 23 23 21 19 17 19 18 16 25 23 16 17 16 17 29 23 23 20 22 25 32 30 23 19 21 23 24
32 31 31 31 30 30 30 28 27 28 27 24 24 23 22 20 21 21 20 18 18 19 20 22 24 25 24 22 21 22 23 26 30 33 33 31 24 21
32 32 31 30 30 26 25 25 26 27 26 25 24 23 23 23 23 23 22 22 22 23 23 23 23 22 21 22 23 22 22 22 24 23 25 32 33 33

GFSNE_sfc_temp_072.txt.gz
Temp
51 52 53 51 51 52 54 54 54 49 49 47 45 45 47 48 48 48 49 52 53 53 54 54 54 55 57 58 59 60 60 61 62 62 64 64 64 64
49 49 48 48 49 50 51 52 52 52 49 47 44 45 47 48 48 47 48 48 51 51 52 52 53 53 54 54 55 56 57 58 59 60 61 61 60 59
47 47 47 48 49 49 49 49 48 48 48 43 44 44 43 44 45 46 46 45 45 49 50 51 51 51 52 52 53 53 54 55 56 57 57 57 58 57
47 46 46 49 48 47 47 46 44 44 45 42 42 41 40 41 41 43 45 45 43 46 49 49 49 50 50 50 50 51 51 52 53 53 54 55 55 56
44 47 46 46 44 43 44 43 43 43 41 41 38 40 38 39 39 41 42 37 41 46 48 48 48 48 48 48 48 48 48 49 50 50 51 51 52 53
40 40 41 43 42 42 42 42 42 41 41 39 39 37 38 38 37 33 36 33 34 39 41 43 45 46 48 47 46 46 46 46 47 48 48 49 49 49
42 42 41 42 45 44 42 41 41 38 37 37 36 37 37 35 32 32 30 30 31 30 31 32 32 31 34 42 43 44 44 44 45 45 46 47 48 48
39 39 40 41 43 45 44 43 42 39 37 36 35 35 32 31 31 29 28 24 25 30 29 29 30 29 30 32 43 43 43 43 43 44 44 45 46 46
36 35 36 37 36 34 42 41 42 43 40 36 32 32 31 31 29 28 27 25 26 29 29 27 28 29 30 35 42 42 42 42 43 43 43 44 44 45
34 33 27 28 32 34 32 32 31 32 33 36 33 32 31 31 31 30 29 28 28 29 28 22 26 27 28 29 41 42 42 43 43 43 43 44 44 44
33 32 32 32 38 41 32 31 32 33 40 39 39 40 40 39 35 29 25 23 24 27 27 27 25 26 27 27 30 41 42 43 43 43 43 43 43 43
31 33 40 35 41 41 32 32 30 30 31 31 31 33 33 34 38 30 27 21 22 21 27 24 25 24 20 27 28 28 29 39 40 41 41 42 42 32
30 32 34 41 42 41 37 31 32 32 34 30 29 28 29 29 29 29 29 23 17 18 28 23 13 18 16 19 26 27 27 28 28 30 36 38 40 38
31 33 33 40 41 41 38 38 39 36 30 29 28 28 27 26 27 29 29 28 26 24 26 21 12 14 9 12 19 26 25 25 24 25 24 31 36 38
32 35 37 40 41 39 40 39 40 30 29 28 28 25 24 25 25 26 27 26 23 25 27 16 16 10 11 11 14 18 24 24 23 19 22 22 23 24
37 34 37 37 37 34 35 34 31 29 28 27 27 29 28 25 26 26 23 22 18 22 27 23 16 14 10 16 16 18 22 19 19 19 21 24 24 26
34 31 30 30 29 29 29 29 29 29 28 28 28 28 30 29 28 25 23 17 17 17 20 23 25 22 20 17 22 24 22 21 21 20 20 20 24 24
34 29 29 28 28 29 29 29 29 31 28 27 27 26 26 26 25 24 20 17 17 18 16 18 18 23 25 23 29 25 25 24 20 20 21 16 21 24
33 29 28 28 28 28 27 27 26 28 27 26 26 24 23 23 26 23 22 22 20 20 16 15 9 11 12 17 25 33 24 15 16 19 20 21 20 24
33 31 29 29 29 28 27 27 27 25 24 24 23 23 22 22 22 22 20 19 20 20 19 15 9 11 14 16 18 24 32 15 14 19 21 23 25 31
33 31 29 28 28 28 29 28 27 25 22 23 24 22 19 18 20 22 19 26 23 20 19 20 19 27 19 22 18 21 24 32 30 17 15 19 23 24
32 32 32 32 31 29 28 28 27 27 25 23 22 21 21 19 19 21 22 21 21 21 21 23 23 21 23 22 20 20 23 25 30 32 33 31 24 20
33 32 32 32 31 30 30 27 26 26 25 25 22 23 20 18 22 24 24 23 22 21 22 22 24 24 23 21 22 21 21 21 23 22 25 31 32 33

GFSNE_sfc_temp_075.txt.gz
Temp
50 50 50 50 51 51 53 53 52 48 49 46 44 46 47 48 48 49 49 52 53 54 54 54 54 55 56 57 58 59 59 60 62 63 64 64 64 65
49 48 47 47 47 49 50 52 52 52 49 47 45 45 46 47 48 47 46 48 51 52 52 52 52 53 54 54 55 56 56 57 59 60 63 63 64 63
46 46 46 47 46 47 48 49 49 48 48 42 44 44 43 44 44 45 46 45 45 50 50 51 51 51 52 52 53 53 54 55 57 58 59 59 59 59
46 46 46 48 45 45 47 46 45 45 46 42 42 41 40 41 42 43 45 45 42 46 49 49 49 50 51 50 50 50 51 51 52 54 55 56 57 57
43 44 44 44 44 44 44 44 43 44 42 42 38 39 38 39 40 41 41 36 40 45 47 48 49 49 49 48 48 48 48 49 49 50 51 51 53 54
39 40 43 43 43 43 43 42 42 41 42 40 39 37 38 38 38 35 36 34 34 39 41 42 44 45 47 47 46 46 46 46 47 48 49 49 49 50
42 42 42 43 45 44 42 41 41 39 38 37 36 37 37 36 34 32 33 31 32 31 31 32 32 32 34 39 41 44 44 45 45 45 46 47 48 48
40 40 41 42 43 45 44 44 42 39 37 36 36 36 35 33 31 31 30 26 28 29 29 30 30 30 31 32 42 44 43 43 44 44 44 45 46 46
37 36 37 39 37 34 41 41 42 43 41 37 36 32 30 32 30 28 28 27 27 29 29 27 28 29 30 34 41 43 42 43 43 44 43 44 44 45
34 34 34 33 32 33 31 31 31 32 33 35 32 31 31 31 31 31 30 28 29 29 28 22 27 28 29 30 39 43 42 43 43 43 44 44 44 44
34 35 35 31 37 41 33 31 31 33 39 39 39 40 40 39 35 30 26 25 26 27 28 27 26 27 28 29 31 41 41 42 43 43 43 43 43 43
33 34 39 34 40 42 32 31 30 30 32 32 31 33 33 36 39 30 27 20 22 22 28 24 26 26 23 29 29 28 29 38 39 40 40 41 42 32
31 30 31 41 41 42 38 31 32 33 34 31 29 28 29 29 29 29 29 23 20 21 29 26 20 23 20 22 27 27 27 28 28 29 35 37 39 38
30 30 31 40 41 41 39 38 39 36 30 29 29 29 27 27 27 27 29 28 27 26 30 26 18 17 12 17 20 26 25 25 25 25 24 31 35 36
30 34 37 39 41 40 41 40 40 31 30 28 28 26 26 26 27 27 27 28 27 28 29 23 20 12 14 15 16 18 23 24 22 19 22 22 22 23
37 31 36 37 39 36 35 35 32 30 29 28 27 29 28 26 27 28 27 27 25 26 29 26 20 18 14 18 17 17 17 16 19 19 21 22 24 25
32 29 29 30 29 29 29 29 29 30 29 28 27 28 29 28 27 26 26 24 21 21 25 26 27 24 22 18 21 22 23 21 21 19 20 20 23 24
32 28 27 28 27 29 30 29 28 30 27 26 25 25 26 25 24 24 24 21 22 22 21 22 23 22 24 25 28 24 24 25 21 20 21 17 20 22
34 32 28 28 29 29 27 26 26 26 25 26 24 23 22 22 26 25 23 23 22 22 21 21 17 17 16 17 26 33 24 16 16 19 20 20 20 24
34 31 29 30 29 28 27 27 27 25 25 25 23 21 21 20 19 20 20 19 19 19 18 17 15 12 15 14 18 25 32 18 16 18 15 22 24 31
33 32 30 29 29 29 28 27 26 26 24 22 22 22 20 19 20 21 19 26 23 18 19 21 23 27 19 18 18 22 26 32 29 16 13 18 23 23
33 32 31 30 29 28 27 28 27 28 27 24 24 22 19 18 20 20 20 19 20 21 22 23 24 21 18 18 20 22 24 27 30 32 33 30 23 19
32 31 31 31 31 30 29 29 29 28 27 27 25 22 21 20 21 23 23 23 22 21 22 22 23 24 23 23 23 22 22 23 23 22 24 31 32 33

GFSNE_sfc_temp_078.txt.gz
Temp
49 49 49 50 51 50 51 52 50 46 48 46 46 46 47 46 48 49 49 52 53 54 54 54 54 55 56 57 58 58 59 59 61 63 63 64 64 66
48 48 48 48 48 48 50 50 51 49 47 47 45 45 47 47 48 47 47 48 51 52 52 52 52 52 54 55 55 56 57 58 60 61 63 64 64 64
46 45 46 46 46 46 48 48 47 48 47 43 44 44 44 44 44 45 46 45 45 50 50 51 51 51 51 52 53 53 54 55 56 58 58 59 61 61
45 44 44 46 44 44 44 44 45 45 45 43 42 41 41 42 42 43 45 45 43 47 50 50 50 50 50 50 50 50 51 51 52 54 55 56 57 58
41 41 42 43 42 42 44 44 44 44 43 42 39 40 39 40 40 41 41 39 41 45 47 48 49 49 49 49 48 48 48 49 50 50 51 52 53 55
39 39 41 44 44 43 43 43 43 41 41 41 39 38 38 39 39 36 36 36 34 39 41 42 43 45 48 47 46 46 46 47 47 48 49 49 50 51
42 42 42 43 45 45 43 42 41 40 38 37 37 37 37 36 35 35 34 33 31 32 33 33 33 33 35 39 41 44 45 45 45 46 47 48 48 49
41 40 41 42 43 45 44 44 43 39 37 37 36 37 36 36 34 33 28 25 27 30 31 31 31 31 32 33 42 44 43 43 44 44 45 46 46 47
38 37 37 39 38 37 41 40 42 42 42 38 36 36 35 34 31 27 29 28 29 30 29 29 29 30 31 34 41 43 43 43 44 44 44 44 45 45
35 35 35 34 35 35 32 31 30 32 32 34 33 32 32 32 32 31 31 29 29 29 30 24 27 29 30 30 39 43 43 43 43 43 44 44 44 44
35 36 36 35 37 41 32 30 30 31 39 41 40 40 40 39 35 30 28 25 26 28 29 28 27 27 28 29 32 41 41 42 43 43 43 43 43 42
34 35 38 36 40 42 30 29 28 29 30 32 31 32 34 36 39 31 29 26 25 24 28 26 27 27 25 30 30 31 31 39 39 40 40 41 41 33
33 33 34 41 41 43 37 29 31 31 33 30 29 29 29 30 29 30 30 25 20 21 30 26 23 26 25 26 29 29 29 30 30 31 35 37 39 37
31 31 30 39 42 42 39 38 39 35 29 29 29 28 26 26 27 28 29 28 27 26 29 26 21 23 22 19 22 27 27 27 26 27 27 31 34 35
30 33 36 39 41 40 41 40 40 29 28 27 28 26 26 26 26 26 27 27 27 29 30 27 26 18 17 17 20 20 25 25 25 22 24 24 24 25
37 32 36 36 38 35 36 36 31 30 29 27 26 28 27 24 26 27 25 25 24 25 29 26 22 21 16 18 19 17 20 19 22 22 24 23 25 26
32 30 29 29 29 29 29 30 29 29 28 27 26 27 29 27 27 26 25 23 19 20 24 26 27 25 24 22 20 23 23 21 21 19 21 20 24 24
32 30 28 28 29 29 28 29 28 30 27 27 24 24 25 25 24 24 23 22 20 20 21 23 24 22 24 27 28 25 25 23 20 20 21 19 21 23
33 31 29 29 29 29 27 26 25 27 26 24 24 23 22 21 26 22 20 20 19 19 19 19 16 16 14 18 27 32 23 21 19 21 20 20 19 26
34 33 32 29 29 28 27 26 26 25 25 25 23 20 20 21 17 19 20 16 15 16 15 11 10 8 13 15 15 24 32 20 17 19 20 23 25 31
34 32 31 30 30 30 29 27 27 26 25 23 23 21 20 15 17 19 18 26 22 13 14 15 18 27 16 14 14 20 25 32 29 19 16 18 22 24
33 33 33 31 30 29 28 28 26 27 26 24 23 23 22 20 17 18 19 18 18 18 17 17 23 24 15 17 17 19 24 27 29 31 32 28 20 18
32 33 32 30 29 29 28 27 27 27 27 27 25 24 21 17 21 22 21 21 18 18 17 19 22 23 20 20 21 20 22 23 24 23 25 31 32 32

GFSNE_sfc_temp_081.txt.gz
Temp
55 56 55 56 56 56 55 56 55 49 50 55 52 53 54 53 52 52 53 53 54 54 54 54 54 55 56 57 57 58 59 60 61 62 63 63 64 65
54 54 54 55 54 54 54 55 54 52 48 53 49 49 51 50 50 50 49 49 51 52 52 52 52 52 54 55 55 56 57 58 59 60 62 64 65 65
52 52 51 53 53 53 53 53 51 51 49 46 47 47 46 46 47 47 46 46 46 49 51 51 51 51 52 52 53 53 54 55 57 58 59 61 62 64
50 50 50 50 51 51 51 51 49 51 49 47 45 43 43 44 44 44 45 45 44 46 50 50 50 50 50 50 50 50 51 52 53 54 55 57 59 60
47 47 48 49 49 49 49 49 50 48 47 46 43 43 42 42 41 42 42 40 43 45 47 48 50 49 49 49 48 48 49 49 50 51 51 53 55 56
45 46 47 48 48 47 46 46 45 44 44 43 42 40 40 40 41 38 38 39 39 44 44 44 44 45 48 47 46 46 46 47 48 49 50 50 51 53
46 46 46 45 45 46 45 44 44 43 42 40 40 39 38 38 37 38 37 36 37 42 43 43 43 43 43 42 43 45 45 46 46 47 48 49 49 50
45 44 44 44 45 45 45 45 44 42 39 39 39 39 39 39 37 36 35 35 38 39 40 40 41 41 41 42 43 44 44 44 45 45 45 46 47 48
41 40 40 41 40 40 42 42 43 42 42 42 39 39 38 38 36 33 36 37 36 36 38 38 38 39 40 41 42 43 44 44 44 44 44 45 46 46
37 37 37 36 37 37 36 38 38 39 39 40 41 40 40 40 40 39 39 36 35 36 36 34 37 38 39 40 39 43 43 44 44 44 44 44 45 45
39 39 39 37 39 41 37 36 37 37 41 41 40 40 40 39 39 38 34 31 31 35 35 36 35 36 37 38 39 41 42 43 44 44 44 44 43 41
38 38 40 38 40 42 38 37 35 36 37 37 37 37 38 40 39 38 36 32 33 31 35 33 34 34 33 36 37 38 38 39 40 40 41 42 41 42
37 36 36 41 41 43 39 37 37 38 37 36 36 36 36 36 36 36 36 33 31 32 35 34 31 31 32 32 35 35 36 37 37 37 36 38 40 40
37 38 37 40 42 42 40 38 39 37 36 35 34 34 33 33 33 34 34 33 34 32 35 32 30 31 30 29 30 34 35 35 34 35 35 35 35 36
37 38 37 40 41 42 41 40 40 35 34 33 33 32 32 33 32 31 31 31 32 32 32 31 31 28 30 30 31 31 32 33 33 32 32 32 34 34
38 38 39 39 40 39 39 40 36 36 34 34 33 34 32 30 31 32 31 31 31 31 32 31 29 28 28 29 29 30 31 30 32 31 31 32 33 34
35 35 36 35 35 35 35 35 35 35 34 34 33 32 32 31 31 31 32 30 30 29 29 30 30 30 30 29 27 30 30 30 31 30 29 29 32 33
33 33 33 34 33 33 33 33 33 33 33 32 32 31 31 30 30 30 30 30 29 29 29 30 30 29 29 31 31 30 30 30 31 30 29 26 29 33
33 34 34 33 33 32 33 32 32 32 31 32 31 30 30 29 31 29 29 29 28 29 29 29 27 27 25 25 33 33 29 30 30 30 30 29 29 31
34 34 33 33 33 32 32 32 32 31 30 30 29 29 28 28 27 28 28 27 27 28 27 26 25 25 25 25 27 30 32 30 29 29 29 31 32 33
34 34 33 33 33 33 32 32 32 31 31 30 29 28 28 27 26 28 28 29 28 26 25 26 27 29 25 24 23 26 30 32 32 28 27 26 27 29
34 34 33 34 33 33 32 32 31 32 31 30 30 29 28 26 27 26 27 26 28 28 26 27 27 26 23 23 24 25 28 31 33 33 32 30 27 24
34 34 34 33 34 33 32 32 31 31 31 31 30 29 28 26 27 28 27 27 27 25 25 25 26 27 26 24 24 25 24 26 29 28 29 33 33 33

GFSNE_sfc_temp_084.txt.gz
Temp
59 59 59 59 59 60 60 60 57 54 57 62 61 60 61 58 55 55 55 53 54 54 54 54 54 54 56 56 57 58 59 59 60 62 62 63 64 65
58 59 59 60 60 60 59 59 58 57 53 59 59 57 55 54 53 53 52 50 52 52 52 52 52 53 53 54 55 56 57 58 59 60 62 62 64 64
57 58 58 59 59 59 58 56 54 56 51 52 51 50 52 50 49 49 48 48 47 48 50 51 51 51 51 52 52 53 54 55 56 57 58 60 61 64
56 56 56 56 57 58 57 55 55 56 52 48 48 46 46 46 46 45 46 45 45 46 49 50 51 50 50 50 50 50 51 51 52 53 55 56 58 60
55 54 55 55 55 55 55 54 53 51 51 49 48 48 46 45 43 44 43 41 43 43 47 48 50 49 49 48 48 48 48 49 50 51 51 53 54 56
52 53 54 54 55 55 53 53 52 50 50 48 47 44 43 43 43 40 39 40 39 44 44 46 46 46 48 47 46 46 46 47 48 50 50 50 51 53
51 52 52 51 47 51 51 51 49 47 45 44 42 41 41 40 39 40 39 38 38 41 43 48 48 48 48 45 45 45 45 46 46 47 48 49 49 51
51 51 50 45 47 47 47 46 48 46 43 41 41 41 42 41 40 38 37 36 36 42 45 46 46 45 46 47 44 44 44 45 45 45 46 47 47 48
48 47 47 47 45 47 45 45 44 43 44 45 41 42 42 42 40 36 36 37 40 42 43 41 41 41 44 44 42 44 44 44 44 44 45 45 46 46
40 41 44 42 42 42 41 40 43 45 45 46 46 45 44 42 42 41 42 43 42 41 40 37 40 41 42 44 40 43 43 44 44 44 45 45 45 45
40 45 46 45 42 42 40 39 43 43 42 41 41 41 41 42 45 44 40 38 38 39 38 38 36 39 40 42 43 43 43 43 44 44 44 44 43 43
45 46 42 43 42 42 41 43 41 42 42 41 41 41 43 41 40 43 41 36 38 36 40 36 37 38 35 41 41 41 42 40 42 41 42 42 41 43
41 42 44 42 42 43 42 44 42 44 41 41 41 41 41 41 42 41 41 37 35 36 40 38 34 36 35 36 39 39 39 39 40 40 38 39 40 40
41 43 44 42 42 42 43 42 40 41 42 40 39 40 39 39 38 38 37 37 37 34 39 34 33 34 33 33 34 36 37 39 38 38 38 38 37 37
45 44 43 41 42 42 43 40 40 40 40 38 38 38 38 38 35 34 34 34 34 35 34 33 34 32 33 33 34 35 36 37 37 36 36 36 37 38
40 40 41 41 42 43 43 41 41 41 39 38 39 39 38 34 35 36 34 35 34 34 34 33 32 32 32 33 33 33 35 32 35 35 34 35 36 37
38 38 38 40 39 40 41 42 42 40 37 38 37 36 36 35 35 35 35 34 33 34 33 33 33 33 33 31 31 33 35 35 35 34 32 32 35 36
34 34 35 36 36 39 38 39 39 38 37 36 36 35 35 33 34 33 33 33 32 34 33 34 32 32 33 34 34 33 35 34 36 34 32 31 33 37
33 34 34 34 35 38 38 38 36 37 35 35 34 33 33 33 33 32 32 33 32 33 33 34 31 30 29 29 35 34 32 33 33 33 34 33 32 34
36 34 34 34 36 37 37 37 37 36 35 35 33 33 32 32 32 32 32 31 31 32 31 31 30 30 29 29 30 34 33 32 32 32 32 35 35 36
36 34 35 35 35 37 37 36 35 35 34 33 33 32 32 32 32 32 32 32 32 31 29 30 32 34 31 29 26 30 33 33 34 32 32 29 29 32
36 35 35 34 35 36 36 35 35 34 34 33 33 32 32 32 31 31 32 31 32 32 31 33 30 30 26 26 27 30 32 34 35 34 34 32 29 26
35 35 35 35 35 35 35 34 34 34 34 33 33 33 32 31 32 33 32 32 32 31 31 30 30 29 28 28 28 28 29 29 31 31 33 35 34 34

GFSNE_sfc_temp_087.txt.gz
Temp
60 59 58 58 59 59 59 59 56 51 54 58 57 58 59 57 53 56 54 53 54 54 53 53 53 54 55 56 57 58 59 60 61 61 62 63 63 64
59 58 57 58 57 57 57 57 57 55 51 57 56 55 55 55 52 54 51 51 52 53 52 52 52 53 53 54 54 55 56 57 58 59 60 61 62 63
58 58 57 58 57 57 57 56 55 55 52 53 52 52 52 52 50 50 49 48 47 49 50 51 51 51 51 51 52 52 53 54 55 56 57 58 59 61
57 56 57 58 57 58 57 55 54 55 52 50 49 47 48 48 46 45 46 46 45 46 49 50 51 50 50 50 50 50 50 51 52 53 54 55 56 58
57 55 55 55 54 54 54 54 53 53 52 49 46 47 46 45 44 44 43 42 44 44 48 49 50 50 50 49 48 48 48 49 50 51 51 52 53 55
54 54 54 53 53 54 52 53 52 49 50 48 47 44 44 44 43 40 39 41 40 45 44 45 47 47 48 47 47 46 47 47 48 49 50 50 51 53
52 52 52 51 49 51 52 52 50 47 46 44 44 42 41 40 39 40 38 38 38 40 40 42 43 44 43 44 45 45 46 46 46 47 49 49 50 51
50 50 50 46 47 48 48 47 50 46 44 42 41 40 41 41 40 37 36 34 34 40 38 39 41 39 41 41 44 44 45 45 45 46 46 47 48 49
47 47 47 48 46 46 46 46 45 45 44 45 41 41 40 41 39 36 36 35 36 37 38 37 37 36 38 41 43 44 44 44 45 45 45 46 47 47
42 43 44 42 42 44 42 40 41 43 43 45 44 44 44 42 40 39 38 37 37 38 36 31 35 34 36 37 42 43 44 44 44 45 45 45 46 46
41 42 45 45 45 45 41 38 41 41 42 42 42 43 43 45 44 40 37 34 33 34 35 33 32 32 34 35 38 43 43 44 44 44 44 45 44 44
42 44 45 46 46 44 41 40 38 38 39 37 38 39 41 40 42 38 36 32 33 30 34 30 31 32 28 34 35 36 36 42 43 42 43 42 42 38
42 43 44 44 45 44 43 41 40 41 40 37 37 36 36 36 36 36 36 33 31 31 35 32 29 29 29 29 32 35 34 34 35 37 40 40 41 40
39 41 42 44 43 44 43 43 43 43 37 36 35 35 33 33 32 32 33 33 32 32 33 31 29 28 28 28 28 32 32 33 33 33 33 38 38 39
42 43 44 43 43 42 43 43 42 36 36 34 33 32 32 32 31 30 30 31 30 31 32 28 29 26 27 26 27 27 29 31 30 29 29 29 29 31
42 40 42 41 42 40 40 40 37 37 35 34 33 34 33 30 30 30 29 29 28 28 31 29 26 26 25 26 26 25 27 25 28 28 29 29 31 32
39 36 37 37 36 37 38 37 38 37 34 34 32 32 32 31 31 31 30 29 27 27 27 28 29 29 27 24 23 26 26 26 27 27 27 25 28 31
35 34 34 36 36 36 37 37 37 38 35 33 32 31 30 30 30 29 29 27 26 27 27 27 26 25 26 28 32 26 26 26 27 27 27 22 24 29
34 34 34 34 35 36 36 36 36 37 34 34 33 32 30 29 31 29 28 28 27 27 26 27 25 23 21 21 27 35 23 25 25 25 26 25 23 27
35 34 33 34 34 34 35 35 36 35 34 33 33 32 31 30 29 29 29 26 26 26 25 25 23 23 21 21 21 25 34 23 24 24 24 29 29 37
37 35 35 33 34 35 35 36 35 34 33 32 32 31 31 30 30 29 29 32 31 26 24 25 27 34 23 22 19 22 26 34 31 25 29 28 26 24
37 37 35 35 35 34 34 35 34 34 33 32 32 31 31 31 30 29 30 29 29 27 25 26 23 24 19 18 17 20 25 28 32 34 34 33 25 17
36 36 35 34 34 34 34 34 33 34 34 33 32 32 32 30 30 30 30 30 30 28 26 25 25 24 21 21 21 19 23 28 29 27 30 35 35 35

GFSNE_sfc_temp_090.txt.gz
Temp
59 59 58 57 57 57 57 56 53 48 49 53 50 52 51 50 53 53 50 54 55 55 54 54 54 54 55 56 56 57 57 58 59 61 61 62 62 63
57 56 55 55 55 55 54 54 53 51 48 52 49 50 50 51 52 51 49 51 53 53 53 52 52 53 53 53 54 54 55 55 56 58 59 60 60 60
54 55 54 54 52 52 53 52 51 51 48 47 48 47 48 47 48 47 48 47 47 50 51 51 51 52 52 52 52 52 52 53 54 55 57 57 58 59
54 53 53 55 52 52 51 50 50 50 50 48 47 45 45 45 45 45 46 47 45 47 49 50 50 50 50 50 50 49 49 50 52 52 53 55 55 57
53 52 52 51 50 49 50 49 48 50 50 47 43 46 43 44 43 44 43 42 44 46 49 49 50 50 50 49 48 48 48 48 49 51 51 52 53 54
51 51 51 50 49 49 48 48 48 46 47 46 45 43 43 43 42 40 39 40 40 45 46 46 48 48 49 48 47 46 47 47 48 49 50 50 51 53
50 50 50 50 50 50 48 47 47 46 45 43 43 41 40 39 38 40 38 38 39 40 39 41 42 42 44 45 45 46 46 46 47 47 48 49 50 51
48 48 47 46 48 49 49 49 48 46 44 42 40 40 40 40 40 37 36 34 34 38 37 37 40 39 37 36 45 45 45 45 46 46 47 48 48 49
45 45 45 46 44 43 47 47 47 47 47 44 39 38 39 39 38 36 35 35 35 36 36 35 37 32 33 39 43 44 44 45 45 45 46 46 47 48
40 41 41 39 40 42 40 37 37 38 40 43 41 40 40 41 40 39 37 36 36 36 36 32 29 30 31 31 43 43 44 44 44 45 45 46 46 47
40 41 41 40 44 46 40 35 36 37 43 43 43 45 46 45 43 38 34 34 33 31 30 30 28 29 30 30 32 43 43 44 44 44 45 44 44 44
40 41 44 42 46 46 37 35 33 35 34 33 33 37 40 40 45 34 32 33 31 23 29 26 27 28 23 29 31 32 33 43 43 43 43 43 43 36
38 38 41 46 47 45 43 37 36 38 38 32 31 31 31 31 31 32 32 28 24 22 31 28 19 23 24 23 29 30 31 32 32 34 40 41 41 39
38 39 40 45 45 45 44 43 44 42 33 32 30 29 28 27 26 27 30 28 28 27 30 28 23 21 18 19 23 28 29 30 30 29 29 37 39 40
41 41 42 44 44 43 44 43 44 35 32 30 30 27 26 27 26 25 26 28 26 28 29 27 19 18 19 18 21 23 24 28 26 25 26 27 27 28
42 41 42 42 42 41 41 41 35 34 32 31 30 30 27 24 24 24 22 23 21 23 28 23 19 19 18 20 19 20 21 21 23 24 25 25 29 30
39 36 36 36 36 36 36 36 35 34 32 30 29 29 29 27 27 25 24 23 21 23 25 25 27 25 22 20 18 22 23 23 22 22 24 22 25 28
37 36 34 35 35 35 35 34 35 35 32 31 30 29 27 26 26 25 23 21 23 24 24 24 21 20 22 26 30 22 22 22 22 25 24 17 21 27
37 35 35 34 35 35 35 35 34 35 34 33 30 28 26 25 30 28 23 23 25 24 23 22 19 14 14 17 25 34 19 20 21 23 22 22 18 24
38 35 34 34 35 35 35 35 35 34 34 33 31 30 28 27 24 26 27 25 24 25 23 20 22 20 19 19 18 22 33 20 19 19 20 24 28 35
37 35 35 34 34 34 35 35 34 34 34 33 32 30 29 28 28 28 27 30 29 26 26 25 27 33 16 16 17 21 24 34 29 20 19 24 27 25
36 35 35 34 33 33 32 32 34 35 33 32 31 31 30 31 29 28 28 28 30 28 26 24 24 22 15 16 14 16 22 25 32 35 34 31 21 15
36 36 36 34 33 33 33 32 34 34 33 32 31 31 30 29 30 29 29 29 29 27 26 25 25 23 19 18 16 14 18 21 24 27 26 35 35 35

GFSNE_sfc_temp_093.txt.gz
Temp
59 59 59 58 58 58 57 56 55 49 50 52 50 50 49 49 51 49 49 55 55 55 55 54 54 54 55 56 56 57 56 57 57 59 59 60 61 61
58 58 58 57 57 56 55 55 55 53 49 50 48 48 49 50 51 49 48 52 54 54 53 53 53 53 53 53 54 54 54 54 55 56 58 59 60 60
58 57 57 56 55 55 54 53 52 52 49 46 47 47 46 46 46 48 47 45 48 51 51 52 52 52 52 52 52 52 52 52 53 54 55 56 57 58
56 56 55 55 54 54 52 51 51 51 49 46 45 44 45 47 46 45 46 47 46 48 50 51 51 51 51 50 50 50 49 49 50 52 53 54 55 56
56 56 55 54 53 51 51 51 50 49 47 45 43 44 44 44 43 44 43 43 44 46 49 50 51 51 51 49 49 48 48 48 49 50 51 51 53 54
53 54 53 53 52 50 49 49 47 46 45 45 44 43 43 43 42 40 40 41 40 44 46 47 49 49 50 48 47 46 46 47 47 48 49 50 51 52
51 52 52 51 50 52 49 48 47 45 42 40 41 42 41 39 39 40 39 38 39 40 40 41 42 43 44 47 45 46 46 46 47 47 48 49 49 50
49 49 49 48 49 51 51 50 50 46 43 40 41 41 41 40 38 37 37 35 35 38 37 37 40 38 40 39 45 45 45 45 46 46 47 48 48 49
46 46 45 47 47 46 49 49 49 50 48 43 42 42 40 39 39 36 36 35 36 36 36 35 36 36 36 39 44 44 44 44 45 45 46 46 47 48
43 43 44 42 42 43 41 39 40 41 42 43 41 41 40 40 39 40 38 36 35 36 36 33 33 30 30 31 43 43 44 44 45 45 46 46 46 46
40 43 44 43 45 46 40 35 35 37 43 44 44 44 46 45 43 38 33 34 32 33 32 33 28 28 29 29 31 43 44 44 44 45 45 44 43 43
41 40 44 41 45 46 38 36 34 33 34 34 35 40 42 42 45 36 34 32 33 29 29 27 27 28 23 28 30 31 32 42 44 43 43 43 42 33
40 40 41 45 46 46 43 37 36 36 38 32 31 31 31 32 32 32 32 29 30 22 30 27 19 22 21 22 28 29 30 31 31 33 40 41 42 38
39 40 40 43 45 45 44 41 43 40 33 31 30 29 29 28 27 28 30 29 28 29 31 25 19 21 16 17 23 27 27 28 28 28 28 36 39 40
43 42 42 43 45 45 45 43 44 35 34 31 31 30 28 28 27 26 26 28 27 28 29 29 20 17 17 16 20 21 24 27 25 24 25 25 26 26
42 40 42 43 44 43 42 42 38 36 35 33 32 31 29 27 25 25 23 23 20 26 28 27 23 19 16 18 19 19 20 20 22 22 24 24 28 29
39 37 37 37 37 37 37 38 36 35 34 33 29 30 30 30 28 25 25 21 18 23 25 25 28 26 22 22 19 21 22 22 21 21 23 21 24 27
39 36 36 36 35 36 35 35 35 36 34 32 29 30 29 28 28 26 23 20 19 21 21 22 23 22 26 27 30 22 21 22 21 24 23 16 20 25
37 36 35 34 34 35 35 35 34 35 34 32 32 30 29 28 30 27 25 24 20 20 21 22 20 19 20 21 27 34 21 19 20 22 22 21 17 23
37 36 35 35 35 33 33 34 34 33 32 32 30 29 28 27 26 26 26 26 19 18 19 18 20 19 24 24 20 23 33 21 20 19 19 23 26 34
36 36 35 35 34 34 34 34 34 33 33 32 31 30 28 28 26 26 26 30 27 22 25 25 27 33 23 21 21 23 25 33 29 19 17 18 21 24
35 35 35 35 34 33 32 32 32 33 33 32 32 32 30 29 28 27 27 27 28 28 26 21 26 24 21 24 21 20 24 26 32 34 33 30 19 13
34 35 36 35 34 33 32 32 32 33 33 33 32 32 31 29 30 29 28 28 28 28 26 24 24 25 26 26 24 21 20 21 23 22 25 35 35 35

GFSNE_sfc_temp_096.txt.gz
Temp
60 60 59 58 58 58 58 59 57 49 50 51 49 50 49 50 51 49 49 55 56 56 55 55 54 54 55 55 56 56 56 56 57 58 59 59 59 60
59 59 59 59 58 57 56 55 55 52 49 50 48 48 49 49 50 48 48 51 54 55 54 53 53 53 53 53 54 53 54 54 55 56 57 57 58 58
58 58 58 57 57 56 55 54 53 52 50 46 47 46 47 46 46 46 47 46 46 52 53 52 52 52 52 52 52 51 51 52 52 53 54 55 56 57
58 57 57 56 56 56 55 54 54 52 50 47 45 45 46 45 45 46 46 46 43 49 50 51 52 51 51 51 50 50 49 49 50 51 52 53 54 56
59 57 58 55 55 54 54 53 51 50 48 47 44 44 44 44 43 44 44 43 44 47 49 51 51 51 51 50 49 48 48 48 48 49 50 50 51 53
57 57 57 56 56 54 53 52 50 48 46 46 44 43 42 43 43 41 40 41 41 45 46 48 48 50 50 50 48 47 46 47 48 48 49 49 50 51
52 53 53 53 51 53 52 50 49 48 44 42 41 41 41 40 40 40 40 39 40 41 38 38 41 42 44 48 46 46 46 46 47 47 47 48 49 50
50 50 51 48 50 51 51 51 51 48 46 42 41 41 42 39 39 38 37 35 36 36 34 34 38 38 40 40 45 46 45 45 46 46 46 47 48 49
47 47 47 47 48 49 50 50 50 51 51 49 44 42 39 39 39 36 34 33 36 35 35 35 36 36 37 40 45 45 45 44 45 45 46 46 47 48
44 45 45 44 44 45 44 43 45 46 46 46 46 43 42 42 42 39 37 36 35 36 37 33 30 34 34 34 41 44 44 44 44 45 46 46 45 46
40 42 45 44 46 47 42 39 39 40 44 45 45 45 46 45 42 37 33 35 33 33 33 34 30 29 29 30 32 42 44 44 44 45 44 44 43 42
41 39 45 45 46 47 41 40 37 37 37 37 38 41 44 43 45 38 36 35 33 31 32 30 28 29 25 29 30 30 32 41 44 44 43 43 41 32
41 40 41 45 46 47 44 40 40 37 39 33 33 33 33 35 35 34 35 33 29 27 31 29 22 24 23 23 28 29 29 31 31 33 39 41 42 37
40 41 42 44 45 45 45 43 43 40 34 32 31 31 31 30 30 30 32 30 30 32 33 28 22 24 19 17 23 27 27 27 28 28 27 35 39 40
43 43 43 43 43 44 45 43 43 35 34 31 31 31 30 29 28 27 28 29 29 29 30 25 23 18 19 16 20 21 24 27 25 23 24 25 26 25
42 42 42 42 43 43 43 42 39 35 35 34 32 30 28 27 26 26 25 25 25 27 28 29 21 23 16 16 17 17 19 20 21 22 24 24 28 28
41 36 37 37 37 38 38 39 37 36 35 33 32 30 31 29 28 24 25 23 20 23 26 27 27 25 21 21 17 22 22 22 20 21 23 21 24 27
39 35 35 36 37 37 36 36 36 36 35 33 32 32 30 29 28 24 23 23 20 22 21 25 24 21 22 25 29 22 21 23 21 24 23 16 20 24
36 35 35 35 36 36 35 35 33 34 33 32 31 30 30 28 29 27 26 25 22 22 20 22 20 16 14 17 24 33 22 21 21 22 22 21 17 22
34 35 35 35 35 35 34 34 34 32 32 31 31 30 29 29 28 27 27 27 25 22 20 17 19 17 21 19 22 24 33 23 21 21 20 23 25 33
33 34 35 35 35 34 34 33 33 32 32 32 31 30 29 29 29 28 27 30 28 24 23 24 27 31 17 21 20 23 26 33 29 22 19 18 20 23
32 33 34 35 35 34 34 33 33 33 32 32 31 30 29 29 28 27 28 28 29 27 28 22 22 22 19 22 20 22 24 27 33 34 32 30 20 14
32 32 34 34 35 34 33 33 33 33 33 32 32 30 29 28 30 30 28 29 29 27 25 22 24 25 25 25 25 22 22 24 26 26 27 35 35 34

GFSNE_sfc_temp_099.txt.gz
Temp
61 60 60 60 60 60 60 60 59 53 50 50 50 51 52 52 52 51 51 56 57 57 57 55 55 55 55 56 56 56 56 56 56 57 57 58 59 59
60 59 60 60 59 58 58 58 56 57 52 50 49 49 50 50 51 48 49 52 55 55 55 54 53 54 54 54 54 53 53 54 54 55 56 56 57 58
59 59 59 59 58 58 58 56 54 53 50 46 47 47 47 48 47 47 48 47 48 54 54 53 53 53 53 52 52 52 51 51 52 53 54 54 55 56
58 58 58 57 57 57 56 54 53 51 50 46 45 45 46 47 46 45 45 46 45 50 51 52 52 52 52 51 51 50 50 49 50 50 51 52 53 54
59 58 59 57 57 57 56 55 55 52 52 47 44 45 44 46 44 45 43 42 44 47 50 51 52 51 52 51 50 49 48 48 48 49 49 50 51 52
57 58 58 57 57 56 55 55 54 52 51 49 44 43 43 43 44 42 41 41 40 44 47 48 49 50 51 52 49 47 47 47 47 48 48 49 49 50
53 53 54 54 52 56 55 55 53 51 49 47 43 42 41 41 43 41 41 39 39 42 41 42 42 41 41 50 47 46 46 46 46 47 47 48 48 49
50 51 52 49 50 51 52 52 53 51 48 47 43 44 42 41 41 40 38 37 36 40 38 37 37 36 39 41 46 46 46 46 46 46 46 47 47 48
46 47 48 48 48 49 50 50 50 51 53 50 45 44 42 42 41 36 36 35 36 35 36 33 34 34 38 41 45 46 45 45 45 45 45 46 47 47
42 43 45 45 45 46 46 45 47 48 48 48 49 46 46 44 44 41 39 35 35 34 35 32 31 32 32 34 43 45 45 44 44 45 46 45 44 45
43 43 44 45 47 48 44 42 42 42 46 47 47 46 46 46 44 40 36 36 33 32 33 34 29 29 30 30 33 43 44 44 44 45 45 43 42 41
44 42 44 44 46 47 44 42 40 40 39 39 41 43 45 45 45 43 38 37 33 32 34 32 28 29 26 29 30 31 33 44 44 45 43 43 40 31
42 42 42 45 46 46 47 42 42 39 40 37 37 35 38 38 39 36 38 38 33 33 32 29 25 26 25 24 28 30 30 31 32 37 41 41 42 36
40 42 43 44 44 45 46 44 45 41 36 34 34 34 35 35 35 32 33 32 34 34 34 29 25 25 21 19 24 27 27 27 29 28 27 35 40 41
41 42 43 44 44 44 45 45 44 36 35 34 34 34 33 31 30 29 29 30 29 30 31 28 25 20 21 18 20 21 25 27 25 23 23 25 26 25
40 39 41 42 43 43 43 44 40 36 36 35 34 32 30 27 26 27 28 26 25 27 29 26 20 23 16 17 19 19 19 20 21 21 24 24 28 28
38 36 36 36 37 37 38 39 38 36 35 35 33 31 30 29 29 27 25 24 22 26 26 27 26 25 21 22 19 21 22 21 21 21 24 22 25 27
35 34 35 35 35 36 36 37 36 36 35 33 33 32 31 30 28 27 25 24 23 23 25 26 25 21 23 26 29 23 20 23 20 23 23 19 21 25
32 33 33 34 35 36 36 36 35 36 34 32 32 31 30 30 31 28 27 26 23 22 19 22 19 19 16 19 24 33 21 20 21 22 23 24 21 23
32 32 32 33 35 35 34 35 34 32 32 32 32 31 30 29 28 27 27 26 25 19 17 16 22 18 20 20 21 22 32 20 21 22 23 25 28 33
31 31 32 33 33 35 34 33 33 33 33 32 32 31 30 30 29 28 27 30 28 21 22 22 25 30 14 20 23 23 27 33 29 23 23 23 24 24
32 31 31 32 33 34 34 33 32 33 33 32 32 31 31 31 29 28 28 28 27 26 27 27 24 20 19 24 21 20 23 27 32 34 33 32 25 22
30 31 31 32 33 33 34 33 32 33 33 33 32 31 30 29 30 29 29 29 29 27 25 23 23 24 26 25 22 21 22 22 26 28 28 35 34 34

GFSNE_sfc_temp_102.txt.gz
Temp
60 60 59 60 59 60 59 59 57 54 55 50 50 52 52 54 54 54 54 57 60 61 60 58 57 57 57 58 57 57 56 55 56 57 57 58 58 59
59 59 59 60 60 60 59 59 59 58 55 53 51 50 52 52 52 51 51 54 56 57 56 55 55 55 55 55 55 55 54 54 54 55 55 56 57 57
59 59 59 60 59 59 58 58 57 57 54 47 48 48 49 50 49 49 50 49 52 55 55 54 54 54 54 54 53 53 52 52 52 52 53 54 55 56
58 58 58 59 58 59 58 57 56 56 52 46 46 46 47 49 48 48 47 47 47 53 54 54 53 53 53 52 52 51 50 50 50 50 51 51 53 54
57 58 58 58 57 57 57 56 55 53 52 47 44 45 45 47 46 46 45 44 44 49 52 53 53 52 52 52 51 50 49 49 49 48 49 49 50 51
52 53 55 56 57 57 57 56 55 53 52 49 45 45 44 45 46 44 42 42 41 44 48 48 51 52 52 52 50 49 48 48 48 48 48 48 49 50
49 50 52 51 49 52 55 56 55 54 52 50 44 42 43 43 44 44 43 42 42 40 39 41 44 44 46 50 48 47 47 47 47 47 47 48 48 49
45 47 48 48 50 51 51 51 53 53 51 50 47 45 44 45 45 43 39 38 37 41 40 38 42 40 41 41 47 47 47 47 46 46 46 47 47 48
42 43 44 47 47 48 49 50 50 51 52 52 50 49 46 46 45 41 38 38 38 36 38 36 37 37 36 41 47 47 47 46 45 45 45 46 46 47
40 41 43 44 45 46 46 45 47 49 50 50 52 52 50 47 46 46 43 39 34 36 37 35 32 33 34 35 46 47 46 45 45 45 46 45 44 44
45 42 41 42 46 47 45 43 44 45 46 48 49 48 47 48 46 42 38 38 33 33 35 34 31 31 32 31 34 45 45 45 45 46 45 44 42 41
42 44 46 44 46 47 44 43 42 42 41 41 43 45 47 46 45 46 40 38 33 32 33 33 30 31 28 30 31 32 34 45 45 45 44 43 41 32
38 40 42 45 45 45 46 44 43 43 42 38 38 39 40 42 42 40 42 41 34 33 34 32 29 29 27 26 29 30 32 34 34 39 44 42 41 36
37 39 41 42 43 44 44 45 46 44 38 36 36 36 37 38 36 35 35 33 34 35 35 30 26 26 23 21 25 28 28 29 30 30 28 36 41 41
38 39 40 41 42 42 44 44 45 38 36 35 35 36 35 36 33 31 31 32 31 33 34 32 28 23 24 25 24 23 25 27 25 25 24 25 27 26
38 37 39 40 41 41 41 42 42 37 36 36 36 34 32 33 32 31 30 31 30 28 30 28 25 25 18 18 20 20 19 21 22 22 25 25 28 29
37 35 34 35 33 36 37 38 39 37 36 35 33 32 32 32 31 30 31 30 29 26 26 27 26 25 22 21 18 20 21 20 21 22 24 22 25 27
34 31 31 33 33 34 35 35 37 37 36 34 33 33 32 31 30 29 29 31 28 28 26 26 26 20 23 26 29 22 20 21 20 24 24 19 20 25
31 31 31 31 32 33 34 34 34 35 34 34 33 32 31 31 30 28 29 29 27 26 27 27 24 19 17 19 23 32 20 20 23 22 23 22 20 22
31 30 30 30 31 32 32 34 34 34 33 32 32 32 31 30 29 28 28 28 27 24 22 21 25 20 23 20 18 20 32 21 22 23 22 24 26 34
30 30 31 30 29 31 32 33 33 32 32 32 32 32 31 31 29 29 28 30 28 25 23 23 27 31 11 18 21 25 26 32 29 23 23 22 22 23
29 29 30 29 27 30 32 33 33 33 32 32 32 32 31 31 30 29 29 28 28 26 26 26 23 19 16 21 18 20 26 27 33 33 33 31 23 19
28 29 26 26 25 30 31 32 32 33 32 32 32 32 31 30 30 30 29 29 27 26 26 23 23 21 24 25 21 21 23 26 27 27 28 35 35 35

GFSNE_sfc_temp_105.txt.gz
Temp
60 61 61 62 61 61 61 60 60 55 56 56 55 56 57 57 57 58 58 58 61 62 63 61 59 60 60 61 61 60 59 58 57 57 58 58 58 58
60 60 60 60 60 61 60 61 60 57 54 58 55 54 56 55 56 58 55 55 58 59 58 57 57 57 58 58 58 57 56 56 56 56 56 57 57 57
59 59 59 60 59 60 60 61 59 58 55 57 52 51 52 53 52 55 54 55 56 56 56 56 55 55 56 56 56 55 55 55 54 55 55 55 55 55
52 56 58 58 58 59 59 58 58 59 57 56 48 47 49 52 51 50 50 51 52 54 55 54 54 54 54 54 54 53 53 53 52 52 52 52 53 53
50 51 52 53 56 58 58 57 58 57 57 53 45 47 46 49 48 48 48 47 48 52 54 54 54 54 54 53 53 52 51 51 50 49 50 50 51 51
50 51 51 52 52 52 54 57 57 55 53 51 47 46 45 46 48 46 43 45 44 46 50 52 53 53 53 53 52 50 49 49 49 49 49 49 49 49
48 49 50 49 47 50 51 51 53 54 53 50 46 44 43 44 46 46 45 44 42 43 45 49 50 51 53 52 50 48 48 48 48 48 48 48 48 48
43 45 47 47 49 49 49 50 50 50 52 51 49 47 47 48 47 45 43 40 39 42 43 44 49 47 49 48 49 48 48 48 48 47 47 47 47 48
43 43 44 46 46 47 48 48 49 50 50 51 51 50 50 49 47 44 44 45 45 41 43 40 42 43 44 45 48 48 48 48 47 47 46 46 47 47
42 44 45 45 46 46 46 46 47 49 50 50 51 53 54 52 51 49 48 45 37 39 43 38 38 40 41 42 47 48 47 47 46 46 46 46 45 45
41 43 44 46 47 47 45 43 44 46 48 48 48 49 50 50 51 46 41 39 34 34 38 36 33 34 37 39 43 47 47 47 46 46 46 44 44 42
40 41 43 44 45 46 43 42 40 42 46 46 46 47 48 48 48 48 43 41 35 33 36 35 33 34 33 37 40 42 46 46 46 46 46 44 42 42
39 39 41 41 42 43 43 42 42 44 45 43 42 42 43 45 45 47 45 45 39 36 37 35 33 32 33 30 34 37 40 43 44 45 45 43 42 41
37 38 39 40 40 41 41 43 43 44 42 40 38 39 39 41 42 41 43 43 43 36 39 35 33 34 31 29 30 33 35 38 40 40 40 41 43 41
39 39 40 40 40 40 40 41 42 41 39 37 37 38 39 39 35 34 33 33 33 36 38 34 35 33 35 33 31 32 33 35 36 37 37 38 39 39
38 37 38 39 40 39 39 39 40 39 38 38 37 37 33 34 34 33 33 33 32 28 31 33 34 35 32 34 33 32 34 32 34 36 36 37 37 39
38 36 35 34 34 35 36 37 37 36 36 37 35 33 33 34 33 33 32 33 32 29 28 29 31 32 35 31 31 34 32 31 34 33 34 34 36 38
36 32 32 33 32 33 33 34 34 35 35 36 35 34 33 33 33 32 33 33 31 30 29 28 29 31 32 33 35 31 32 31 31 32 34 33 34 36
32 32 32 32 32 32 32 33 32 34 34 35 33 33 33 32 32 31 32 32 31 30 29 28 30 33 30 29 31 34 31 31 30 31 33 34 34 34
32 31 31 32 32 32 32 31 33 33 33 33 32 32 32 32 31 30 31 31 30 28 27 28 29 32 33 31 29 32 33 31 32 31 31 32 33 35
31 31 31 31 32 32 31 31 31 32 33 32 32 32 32 32 31 31 31 32 30 29 26 26 29 34 29 31 29 28 30 33 33 32 31 32 31 31
31 30 30 31 31 30 30 31 31 32 32 33 32 32 32 32 31 31 31 32 31 31 30 29 28 28 30 32 28 27 28 31 34 34 35 35 32 28
29 29 29 30 30 29 29 31 31 31 32 32 32 32 32 32 32 31 31 32 30 28 27 26 27 29 31 29 27 27 27 29 30 30 32 36 35 35

GFSNE_sfc_temp_108.txt.gz
Temp
61 62 61 62 62 62 61 60 58 55 60 68 62 64 62 61 59 58 58 58 60 62 63 64 62 62 63 63 64 64 63 61 60 59 59 59 59 59
57 59 60 61 60 60 60 60 60 58 55 64 60 60 58 57 57 58 58 57 58 60 61 59 58 59 60 60 61 61 60 59 58 58 59 58 58 58
53 53 54 58 59 61 60 60 59 59 56 59 61 59 56 55 54 56 57 57 59 58 59 57 57 57 58 58 58 58 58 57 57 57 57 57 57 57
51 51 51 53 53 57 59 59 58 58 57 55 58 54 53 56 56 54 54 55 57 56 57 56 56 56 56 56 56 56 55 55 55 55 55 55 55 55
51 50 51 51 51 52 51 51 56 58 58 57 57 49 50 50 49 50 50 50 52 53 55 55 55 55 55 55 54 54 53 53 52 52 52 52 52 53
50 50 51 50 50 50 50 50 52 51 55 55 51 46 47 47 49 47 45 46 47 50 52 53 53 53 54 54 53 52 51 51 51 51 50 50 50 50
50 50 49 47 46 48 49 50 51 49 49 51 47 45 45 45 46 47 47 46 43 44 48 49 50 51 52 53 52 50 50 50 50 50 50 49 49 49
47 48 49 47 49 47 48 48 48 47 48 47 49 49 49 50 49 46 46 41 39 43 45 45 49 48 51 53 52 50 49 49 49 49 49 48 48 48
44 45 46 49 47 49 48 47 47 48 49 49 47 48 51 51 49 46 46 46 47 43 46 43 45 45 49 52 50 49 49 49 49 48 48 47 47 47
44 45 45 46 47 47 47 46 46 47 48 50 50 51 52 54 51 50 49 47 41 42 47 42 41 42 44 47 49 49 48 48 48 48 47 47 47 46
45 46 45 45 45 44 43 42 43 44 48 48 48 48 48 49 50 50 45 41 35 36 44 38 35 35 37 40 46 48 48 48 47 47 47 47 45 44
45 45 44 44 42 42 41 41 39 41 44 45 47 48 49 50 48 50 47 43 42 35 39 41 33 34 33 35 40 43 45 47 47 47 47 46 45 45
42 42 44 42 41 41 41 39 38 42 42 44 44 45 46 46 47 48 49 46 42 40 39 40 34 33 34 31 34 39 42 43 44 46 47 46 44 44
40 42 42 41 41 41 41 41 41 41 41 41 40 41 41 41 42 45 46 45 48 45 40 44 34 37 33 30 30 34 37 41 43 43 44 44 44 43
42 41 41 41 41 41 41 41 40 39 39 39 36 38 41 42 38 34 33 34 33 36 39 41 37 37 38 34 32 33 33 36 39 40 40 39 40 41
41 41 40 40 40 40 40 41 40 39 36 34 35 37 40 35 34 34 34 35 34 32 32 34 35 37 35 35 35 34 37 33 37 39 39 39 41 42
39 40 38 38 37 37 38 38 39 38 37 35 34 34 36 35 34 34 34 34 34 32 31 30 31 34 35 34 34 36 36 37 37 37 37 36 38 40
37 35 34 36 35 35 35 35 36 36 37 34 33 33 34 34 34 33 33 34 34 32 30 28 29 30 31 31 38 36 37 35 35 35 37 34 34 39
34 34 34 35 34 35 35 34 33 35 34 33 32 33 33 33 33 32 32 32 33 32 31 29 31 32 30 30 33 38 34 34 33 32 36 37 35 36
35 33 32 34 34 34 34 33 34 34 33 32 32 33 32 32 32 32 32 32 32 31 29 30 32 32 32 31 29 32 35 33 33 33 34 36 35 39
33 32 33 33 33 33 33 32 32 32 33 32 32 32 32 32 32 33 33 34 33 31 29 29 32 34 31 32 28 29 31 35 37 34 33 33 33 33
32 32 32 32 32 31 31 32 31 32 32 32 32 32 32 32 32 33 33 33 32 31 31 31 30 31 32 32 29 28 29 32 35 37 37 36 33 30
31 31 30 31 31 31 31 31 31 31 31 32 32 32 32 32 33 33 32 33 32 31 30 28 29 32 31 30 30 29 28 29 31 32 33 36 36 36

GFSNE_sfc_temp_111.txt.gz
Temp
55 54 57 61 62 62 61 60 57 53 55 62 63 64 64 65 62 62 62 57 59 61 63 63 62 63 64 64 66 66 64 63 64 63 61 60 60 60
52 53 54 54 55 57 60 61 60 57 55 58 59 58 59 59 59 61 60 56 57 60 60 60 60 61 62 62 62 62 62 62 61 61 61 60 60 60
51 50 51 53 52 53 53 56 58 58 55 58 60 58 55 56 56 57 58 58 59 57 59 59 59 59 61 60 60 60 60 60 60 60 60 60 59 59
49 50 50 51 50 51 50 50 51 51 54 55 58 53 54 55 56 55 55 56 57 57 57 58 59 59 59 58 57 57 57 57 57 58 58 58 58 57
51 50 50 51 49 47 48 49 49 51 50 49 54 53 54 51 51 52 53 54 54 54 57 57 58 58 57 56 56 55 55 55 55 55 55 55 55 54
50 50 50 48 46 46 47 47 49 47 49 48 49 49 48 47 49 48 46 47 50 50 54 56 57 56 55 55 54 52 52 52 53 53 52 51 51 51
48 49 49 47 46 47 46 45 45 44 45 46 46 46 45 45 46 47 48 46 45 46 49 50 52 52 53 53 51 50 50 51 51 52 51 50 50 50
45 45 46 46 48 48 49 48 47 44 43 43 44 45 48 47 47 46 45 41 40 45 47 47 50 49 50 51 51 50 50 50 50 50 50 50 49 49
43 43 44 47 45 46 47 47 47 48 48 45 42 45 46 49 50 45 45 43 45 44 48 46 46 46 49 50 51 50 50 50 50 49 49 49 48 48
43 43 43 44 44 43 42 41 42 44 45 46 45 45 46 47 46 46 48 48 42 41 48 45 44 45 46 48 50 50 49 49 49 49 49 48 47 47
45 46 45 44 45 43 40 38 39 40 45 45 45 46 47 48 48 46 43 43 41 37 43 42 37 39 40 41 47 50 49 49 49 49 48 47 47 46
44 45 45 44 43 43 40 38 36 37 38 39 40 42 45 46 48 47 44 42 43 36 39 40 34 34 34 35 39 46 47 48 48 48 48 47 47 39
40 41 43 44 43 42 42 39 38 41 40 39 37 38 41 42 44 45 45 43 42 42 40 43 35 35 34 32 35 42 44 44 44 45 47 47 46 42
38 41 42 42 42 42 41 42 42 41 38 36 35 36 37 38 40 42 43 43 45 44 41 44 34 40 36 30 31 35 41 43 42 40 41 45 46 45
40 41 41 42 42 41 41 41 41 37 35 34 33 34 35 36 37 38 39 36 36 36 39 42 41 38 39 36 31 33 36 38 39 39 39 39 38 36
40 39 40 40 41 41 40 39 38 36 35 33 33 34 36 35 34 37 36 38 35 37 33 37 39 37 37 36 36 33 38 33 37 38 38 37 36 36
38 37 35 35 34 35 36 36 36 35 34 34 33 33 32 33 33 35 35 35 34 35 31 32 33 36 35 34 34 35 36 33 37 36 36 34 35 35
35 32 32 33 33 33 33 33 33 34 33 33 31 32 31 31 32 33 34 33 33 34 33 30 32 32 31 32 35 35 35 34 35 35 36 33 32 34
32 32 32 32 32 32 32 32 31 33 33 31 30 30 31 32 32 32 33 32 32 33 33 31 32 33 31 30 29 37 34 34 34 33 35 34 32 33
33 32 32 32 32 31 31 31 31 31 31 30 30 30 31 31 31 32 32 32 32 33 30 31 32 32 33 30 27 29 35 33 33 33 33 31 34 39
31 31 31 31 30 31 31 30 29 30 30 30 30 30 31 31 31 32 32 34 34 32 29 29 32 35 32 31 28 27 30 33 34 34 33 31 28 27
30 30 30 30 30 29 29 29 29 29 29 29 29 30 31 31 30 31 32 32 32 31 31 31 32 32 32 31 27 26 28 31 34 37 38 35 29 25
29 29 29 29 29 28 28 27 27 28 29 29 29 30 30 29 30 31 32 32 32 31 30 28 30 31 32 30 28 27 27 29 30 29 30 37 37 38

GFSNE_sfc_temp_114.txt.gz
Temp
52 52 52 54 54 55 54 55 56 53 55 60 60 66 68 64 63 62 61 58 61 62 64 64 62 63 64 65 66 66 66 65 65 64 65 62 62 62
51 50 51 51 52 53 53 52 52 51 53 59 61 62 62 61 60 61 60 56 58 60 61 60 60 60 61 61 62 63 63 64 63 64 64 63 62 61
49 49 50 51 50 50 49 50 50 50 48 51 55 58 57 58 57 59 58 58 58 57 59 59 59 59 59 60 60 61 62 63 62 63 63 62 61 61
47 47 47 50 48 47 47 47 48 49 48 46 50 52 55 57 57 56 57 57 57 57 57 58 58 58 58 58 58 59 59 60 60 60 60 60 60 60
47 47 47 46 44 44 45 44 46 47 47 46 46 49 52 51 52 53 53 55 55 54 57 57 57 57 57 57 58 58 58 57 57 56 57 58 58 58
45 45 45 45 44 43 44 43 45 43 43 44 45 46 47 48 49 48 49 48 51 50 53 54 56 56 56 57 57 56 55 55 55 55 54 54 54 55
43 45 44 44 45 46 45 43 43 41 40 40 41 43 45 46 46 47 47 49 46 47 49 52 53 55 56 56 55 52 53 53 53 53 53 53 52 52
40 41 42 43 44 46 47 45 44 40 40 39 39 39 42 44 46 45 46 42 41 46 46 48 50 50 52 54 53 52 52 51 51 51 52 52 50 50
38 38 40 44 41 40 42 42 42 44 44 40 38 39 39 42 43 41 42 42 44 47 45 45 45 46 49 50 51 51 51 50 50 50 50 50 50 49
37 37 37 37 39 41 37 36 37 38 40 41 37 37 39 42 42 43 42 43 44 43 45 42 42 45 45 47 50 50 50 50 49 49 50 49 49 49
39 39 39 38 43 44 37 34 35 36 42 43 43 44 44 44 44 41 37 37 38 39 41 42 39 40 39 43 48 50 50 49 49 49 49 49 48 48
37 38 42 42 45 44 38 34 32 33 35 36 37 38 39 38 43 40 38 36 36 37 39 39 36 36 36 37 39 48 48 49 49 49 49 48 47 42
35 35 37 42 43 43 43 38 35 39 37 32 32 33 35 35 36 38 36 37 36 37 42 39 35 34 35 33 35 41 46 46 46 47 49 48 47 43
35 36 35 41 42 42 41 42 42 41 32 30 29 30 30 31 32 35 37 35 38 38 41 42 35 39 35 32 33 35 42 45 44 43 43 47 47 45
37 38 40 40 41 40 40 41 42 31 29 28 29 28 28 29 31 32 35 37 38 37 39 39 39 39 40 39 36 34 38 40 42 41 40 40 41 41
37 34 37 38 39 39 38 36 33 31 29 29 30 30 29 27 29 32 32 33 33 35 38 37 37 38 38 40 39 34 39 36 40 40 39 40 40 39
37 34 30 30 30 31 32 31 31 29 29 29 29 29 30 30 30 33 33 32 31 32 34 34 34 36 39 38 36 38 38 36 39 38 37 36 36 37
34 30 30 29 28 29 29 28 28 30 29 29 29 27 27 27 28 30 31 32 30 32 33 35 33 32 31 33 37 36 38 37 37 37 38 35 33 35
29 28 28 29 30 30 29 27 27 28 27 25 27 26 26 27 29 28 30 31 31 32 32 33 32 33 32 31 32 36 36 35 35 34 36 36 34 33
29 28 28 29 29 27 26 26 27 26 23 26 24 24 27 27 26 27 29 29 31 32 32 33 32 33 33 33 29 31 35 35 34 34 33 32 34 38
28 27 28 27 27 27 27 27 27 27 27 27 27 27 27 26 26 27 29 32 32 32 31 32 33 38 33 31 29 28 30 36 38 35 33 32 30 30
27 27 27 27 26 26 27 27 26 26 25 24 25 26 27 27 27 27 28 28 30 31 32 32 32 32 31 31 30 27 29 31 33 35 36 33 31 26
26 26 25 25 25 25 25 24 24 23 23 23 24 26 26 26 28 28 29 29 30 31 30 28 30 32 31 30 29 28 28 29 30 30 30 33 33 36

GFSNE_sfc_temp_117.txt.gz
Temp
50 50 50 51 52 52 53 51 49 48 52 56 58 61 64 60 62 64 62 60 61 61 63 63 63 62 64 66 67 68 68 67 66 65 65 65 64 64
49 49 50 50 50 50 48 49 50 48 46 52 52 54 56 59 60 61 64 57 58 60 60 59 60 60 60 61 63 62 63 62 64 65 65 64 63 63
46 47 47 48 48 46 47 48 47 47 45 48 50 52 53 53 55 58 60 60 62 57 60 60 59 59 58 58 59 60 61 61 63 65 65 64 63 63
45 45 45 47 45 44 44 45 45 46 44 42 47 48 49 52 53 53 56 58 58 57 57 58 57 57 57 57 57 58 58 59 60 62 63 63 63 61
43 43 43 43 42 42 42 42 43 45 43 42 42 45 47 50 49 51 51 52 54 53 56 56 57 57 56 56 56 56 56 57 58 58 60 60 60 60
42 43 43 41 41 40 43 42 43 41 41 40 40 41 43 46 47 47 46 49 50 52 52 53 55 55 56 56 56 54 54 55 57 58 57 57 57 57
41 41 41 42 44 45 43 39 39 37 38 38 37 38 39 40 40 42 42 43 46 48 48 49 51 52 54 55 54 53 53 54 55 56 56 56 54 55
37 39 40 42 43 45 44 43 41 37 35 34 35 34 35 37 39 38 39 38 38 46 45 46 49 50 52 54 54 53 53 53 54 55 54 54 53 53
35 36 37 42 40 39 41 41 41 42 42 36 33 33 34 36 36 35 36 36 38 43 43 42 46 47 50 51 51 52 53 52 52 52 52 51 51 51
34 35 34 35 37 39 37 35 35 36 37 39 35 35 36 38 38 37 36 36 38 39 42 39 44 44 46 48 50 51 51 51 51 50 50 50 49 49
36 36 37 37 41 44 37 33 33 34 41 42 43 43 43 43 42 37 34 32 33 35 37 39 40 39 40 42 46 50 50 50 50 50 50 49 48 48
37 38 40 40 42 43 38 35 31 32 32 33 33 35 37 36 40 35 34 32 32 32 36 36 36 37 37 39 40 46 49 50 49 49 49 48 48 45
35 35 36 40 41 42 42 38 34 36 37 32 30 30 31 32 33 33 34 32 31 31 36 37 35 36 34 36 36 39 45 46 47 48 49 48 48 45
33 34 34 39 40 41 40 41 41 41 33 30 28 28 28 29 29 29 30 31 32 32 36 35 33 35 35 35 36 36 40 45 45 44 45 47 47 46
36 37 39 39 39 38 39 40 40 31 29 28 27 28 28 29 29 26 29 31 32 34 37 36 35 35 36 35 36 34 36 38 43 43 43 43 42 41
34 32 35 38 38 37 35 34 32 30 28 27 27 28 29 23 26 26 27 30 31 31 33 36 35 35 34 35 37 37 38 36 41 42 42 42 42 42
35 32 29 28 28 29 30 31 31 28 27 27 27 28 29 29 29 27 27 28 28 29 31 33 36 36 36 35 34 37 39 39 39 40 39 38 39 40
33 28 27 27 29 28 27 28 28 29 27 27 25 24 25 26 25 26 27 26 25 27 29 32 33 33 33 34 37 35 38 39 38 39 39 37 36 38
26 26 26 26 27 28 28 27 26 27 27 23 17 19 23 24 25 24 24 26 26 28 29 32 32 31 29 28 35 39 36 38 37 37 38 38 35 35
26 25 25 26 26 26 26 25 26 25 21 21 20 19 20 23 23 23 24 24 24 26 28 31 32 32 30 29 32 33 36 37 36 36 35 33 34 39
26 25 26 26 26 26 25 24 23 24 24 22 18 15 21 22 24 24 25 29 30 27 26 27 32 39 34 33 30 30 33 35 39 36 34 33 31 31
26 25 25 25 24 23 23 23 23 24 22 20 20 20 22 23 24 25 25 25 26 26 27 30 33 33 32 30 30 32 29 32 36 38 38 37 32 29
26 26 25 25 24 23 22 22 22 22 22 21 20 21 22 23 24 25 26 26 27 27 28 29 31 32 31 30 31 29 29 30 31 31 31 35 36 37

GFSNE_sfc_temp_120.txt.gz
Temp
48 48 49 50 51 49 49 49 47 46 48 54 53 55 55 56 56 57 58 60 61 62 63 64 64 63 64 65 68 68 68 67 68 67 67 65 66 67
45 45 45 47 47 47 47 49 49 45 43 50 50 51 52 53 54 55 56 54 58 60 61 60 60 59 60 60 61 63 64 65 65 68 69 69 68 65
45 45 44 46 44 44 46 45 46 46 42 45 46 49 48 49 52 53 54 54 56 57 58 59 59 59 60 59 60 60 60 62 63 66 67 67 67 65
39 40 40 45 41 41 43 42 43 44 42 39 43 44 44 48 48 48 52 53 53 55 55 55 57 58 58 58 58 58 58 58 59 60 63 65 65 64
38 38 39 39 37 38 40 39 40 43 41 38 38 42 43 45 44 47 46 48 50 51 54 54 55 55 56 56 56 56 56 56 57 57 58 60 61 62
39 39 39 38 38 38 40 39 39 37 39 37 37 38 40 42 40 39 39 43 43 48 51 52 53 53 54 55 55 54 53 54 55 56 56 56 57 59
35 37 39 41 43 44 41 38 38 37 35 35 35 35 35 36 35 36 36 38 40 45 44 46 46 48 51 53 52 52 52 53 53 55 56 56 56 57
33 34 36 39 40 44 44 43 41 37 34 33 32 32 33 34 35 35 34 32 32 41 39 39 43 44 48 50 52 52 52 52 53 53 54 55 56 56
33 33 35 39 37 36 40 42 41 42 42 36 33 32 31 35 35 34 33 31 32 37 37 35 41 41 47 50 51 51 51 51 52 52 52 53 54 55
34 33 32 33 34 38 35 34 34 35 36 37 34 34 35 36 35 35 34 33 36 37 38 32 38 38 42 46 49 50 50 51 51 51 52 52 52 52
34 35 35 34 40 43 36 34 33 33 40 42 42 42 42 42 41 35 31 30 29 33 37 34 35 36 39 40 43 48 49 50 50 51 51 50 50 50
32 34 39 39 41 42 37 32 30 32 32 32 33 34 36 34 39 33 30 29 30 28 32 30 33 33 34 37 38 42 45 49 50 50 50 50 49 47
31 31 33 39 40 40 41 37 36 37 34 33 30 30 30 30 31 31 31 28 27 27 32 31 29 30 31 33 37 40 41 43 46 48 50 49 48 47
33 32 31 38 39 39 39 40 40 40 33 29 28 27 27 27 27 28 29 28 29 30 32 31 30 30 29 29 31 36 38 40 43 42 44 48 48 47
33 35 38 38 38 37 37 38 39 31 29 27 28 27 25 26 28 26 28 28 28 30 33 32 32 33 32 30 30 33 34 35 39 40 40 43 44 43
34 31 34 37 36 35 34 32 31 30 28 28 29 28 28 23 26 27 26 27 26 27 30 31 31 32 31 33 32 32 34 33 36 40 41 41 43 43
35 30 28 27 27 28 29 30 30 28 28 28 28 28 29 28 27 26 26 25 23 24 25 28 30 31 34 33 31 33 33 35 38 39 38 39 40 42
31 25 25 25 25 26 27 27 28 29 27 27 25 25 25 24 24 26 25 22 22 24 25 28 29 28 30 33 36 32 34 35 37 38 40 38 38 40
25 24 24 24 25 26 26 26 25 27 27 24 23 21 20 19 25 22 22 22 23 25 26 28 28 26 25 25 32 39 33 34 36 37 39 38 38 37
26 25 24 25 25 24 25 25 26 25 23 22 21 18 20 20 21 22 24 23 23 23 23 25 25 26 26 26 28 33 37 34 34 35 37 37 36 41
26 25 25 25 24 24 24 23 22 22 23 23 19 17 15 13 19 22 22 26 27 24 23 24 26 35 32 31 29 31 35 36 37 35 36 35 34 31
26 25 25 25 24 23 22 22 21 22 21 20 20 18 17 16 19 20 21 22 23 24 25 27 29 29 29 29 29 30 33 34 36 37 38 37 32 29
25 25 25 25 25 24 23 23 22 22 22 21 20 19 19 19 20 22 22 23 23 23 24 24 27 29 29 30 30 29 30 31 32 33 34 39 38 38